Observation data for Dozier on 02/14/2020      Previous  Date  Next       Current Mesonet Observations  Soil Data  Daily Summary Page  Observations in Plain Language
KDO1 140600Z 07010KT M05/M11 A3037 RMK A01 T10481113  RH  060%=      5-min Rain = 0
KDO1 140601Z 07009KT M05/M11 A3038 RMK A01 T10481114  RH  060%=      5-min Rain = 0
KDO1 140602Z 08008KT M05/M12 A3038 RMK A01 T10481115  RH  060%=      5-min Rain = 0
KDO1 140603Z 07006KT M05/M11 A3038 RMK A01 T10481114  RH  060%=      5-min Rain = 0
KDO1 140604Z 07008KT M05/M11 A3038 RMK A01 T10481114  RH  060%=      5-min Rain = 0
KDO1 140605Z 07007KT M05/M12 A3038 RMK A01 T10481116  RH  059%=      5-min Rain = 0
KDO1 140606Z 07009KT M05/M12 A3038 RMK A01 T10481115  RH  059%=      5-min Rain = 0
KDO1 140607Z 08009KT M05/M12 A3038 RMK A01 T10481116  RH  059%=      5-min Rain = 0
KDO1 140608Z 07011KT M05/M12 A3038 RMK A01 T10491117  RH  059%=      5-min Rain = 0
KDO1 140609Z 08010KT M05/M12 A3038 RMK A01 T10491117  RH  059%=      5-min Rain = 0
KDO1 140610Z 08008KT M05/M12 A3038 RMK A01 T10491117  RH  059%=      5-min Rain = 0
KDO1 140611Z 08009KT M05/M12 A3038 RMK A01 T10491116  RH  060%=      5-min Rain = 0
KDO1 140612Z 07009KT M05/M12 A3038 RMK A01 T10491116  RH  059%=      5-min Rain = 0
KDO1 140613Z 07008KT M05/M12 A3038 RMK A01 T10491115  RH  060%=      5-min Rain = 0
KDO1 140614Z 06008KT M05/M11 A3038 RMK A01 T10491114  RH  060%=      5-min Rain = 0
KDO1 140615Z 07010KT M05/M11 A3038 RMK A01 T10491113  RH  061%=      5-min Rain = 0
KDO1 140616Z 07010KT M05/M12 A3038 RMK A01 T10491115  RH  060%=      5-min Rain = 0
KDO1 140617Z 08009KT M05/M12 A3038 RMK A01 T10491115  RH  060%=      5-min Rain = 0
KDO1 140618Z 08010KT M05/M12 A3038 RMK A01 T10491115  RH  060%=      5-min Rain = 0
KDO1 140619Z 08011KT M05/M12 A3038 RMK A01 T10491115  RH  060%=      5-min Rain = 0
KDO1 140620Z 08009KT M05/M12 A3038 RMK A01 T10491115  RH  060%=      5-min Rain = 0
KDO1 140621Z 07010KT M05/M11 A3038 RMK A01 T10491114  RH  060%=      5-min Rain = 0
KDO1 140622Z 07010KT M05/M12 A3038 RMK A01 T10491115  RH  060%=      5-min Rain = 0
KDO1 140623Z 08011KT M05/M11 A3038 RMK A01 T10501114  RH  060%=      5-min Rain = 0
KDO1 140624Z 08009KT M05/M11 A3038 RMK A01 T10501114  RH  061%=      5-min Rain = 0
KDO1 140625Z 09010KT M05/M11 A3038 RMK A01 T10501114  RH  061%=      5-min Rain = 0
KDO1 140626Z 08010KT M05/M12 A3038 RMK A01 T10501115  RH  060%=      5-min Rain = 0
KDO1 140627Z 09008KT M05/M12 A3038 RMK A01 T10511116  RH  060%=      5-min Rain = 0
KDO1 140628Z 09009KT M05/M12 A3038 RMK A01 T10501115  RH  061%=      5-min Rain = 0
KDO1 140629Z 08009KT M05/M11 A3038 RMK A01 T10501114  RH  061%=      5-min Rain = 0
KDO1 140630Z 08008KT M05/M11 A3038 RMK A01 T10511114  RH  061%=      5-min Rain = 0
KDO1 140631Z 08008KT M05/M11 A3038 RMK A01 T10511113  RH  062%=      5-min Rain = 0
KDO1 140632Z 08007KT M05/M11 A3038 RMK A01 T10501113  RH  061%=      5-min Rain = 0
KDO1 140633Z 07008KT M05/M11 A3038 RMK A01 T10501112  RH  062%=      5-min Rain = 0
KDO1 140634Z 07008KT M05/M11 A3038 RMK A01 T10511112  RH  062%=      5-min Rain = 0
KDO1 140635Z 08008KT M05/M11 A3038 RMK A01 T10501112  RH  062%=      5-min Rain = 0
KDO1 140636Z 08006KT M05/M11 A3038 RMK A01 T10501110  RH  063%=      5-min Rain = 0
KDO1 140637Z 09007KT M05/M11 A3038 RMK A01 T10511110  RH  063%=      5-min Rain = 0
KDO1 140638Z 09008KT M05/M11 A3038 RMK A01 T10511111  RH  063%=      5-min Rain = 0
KDO1 140639Z 08008KT M05/M11 A3038 RMK A01 T10511111  RH  063%=      5-min Rain = 0
KDO1 140640Z 08008KT M05/M11 A3038 RMK A01 T10521111  RH  063%=      5-min Rain = 0
KDO1 140641Z 08007KT M05/M11 A3038 RMK A01 T10521111  RH  063%=      5-min Rain = 0
KDO1 140642Z 07007KT M05/M11 A3038 RMK A01 T10521112  RH  063%=      5-min Rain = 0
KDO1 140643Z 07007KT M05/M11 A3038 RMK A01 T10521111  RH  063%=      5-min Rain = 0
KDO1 140644Z 06008KT M05/M11 A3038 RMK A01 T10521110  RH  064%=      5-min Rain = 0
KDO1 140645Z 06007KT M05/M11 A3038 RMK A01 T10521111  RH  063%=      5-min Rain = 0
KDO1 140646Z 07006KT M05/M11 A3038 RMK A01 T10521111  RH  063%=      5-min Rain = 0
KDO1 140647Z 07005KT M05/M11 A3038 RMK A01 T10521110  RH  064%=      5-min Rain = 0
KDO1 140648Z 07005KT M05/M11 A3038 RMK A01 T10531109  RH  064%=      5-min Rain = 0
KDO1 140649Z 07006KT M05/M11 A3038 RMK A01 T10531110  RH  064%=      5-min Rain = 0
KDO1 140650Z 07007KT M05/M11 A3038 RMK A01 T10531109  RH  065%=      5-min Rain = 0
KDO1 140651Z 08006KT M05/M11 A3039 RMK A01 T10531109  RH  065%=      5-min Rain = 0
KDO1 140652Z 08005KT M05/M11 A3039 RMK A01 T10531109  RH  065%=      5-min Rain = 0
KDO1 140653Z 07005KT M05/M11 A3039 RMK A01 T10531109  RH  065%=      5-min Rain = 0
KDO1 140654Z 07005KT M05/M11 A3039 RMK A01 T10531108  RH  065%=      5-min Rain = 0
KDO1 140655Z 07005KT M05/M11 A3039 RMK A01 T10541109  RH  065%=      5-min Rain = 0
KDO1 140656Z 07007KT M05/M11 A3039 RMK A01 T10541109  RH  065%=      5-min Rain = 0
KDO1 140657Z 08007KT M05/M11 A3039 RMK A01 T10541109  RH  065%=      5-min Rain = 0
KDO1 140658Z 08008KT M05/M11 A3039 RMK A01 T10541110  RH  065%=      5-min Rain = 0
KDO1 140659Z 08008KT M05/M11 A3039 RMK A01 T10541111  RH  064%=      5-min Rain = 0
KDO1 140700Z 07008KT M05/M11 A3039 RMK A01 T10541111  RH  064%=      5-min Rain = 0
KDO1 140701Z 07008KT M05/M11 A3039 RMK A01 T10541112  RH  064%=      5-min Rain = 0
KDO1 140702Z 07007KT M05/M11 A3039 RMK A01 T10541112  RH  064%=      5-min Rain = 0
KDO1 140703Z 07006KT M05/M11 A3039 RMK A01 T10541111  RH  064%=      5-min Rain = 0
KDO1 140704Z 07007KT M05/M11 A3039 RMK A01 T10541110  RH  065%=      5-min Rain = 0
KDO1 140705Z 07008KT M05/M11 A3039 RMK A01 T10541110  RH  065%=      5-min Rain = 0
KDO1 140706Z 08007KT M05/M11 A3039 RMK A01 T10541109  RH  065%=      5-min Rain = 0
KDO1 140707Z 08007KT M05/M11 A3039 RMK A01 T10541109  RH  066%=      5-min Rain = 0
KDO1 140708Z 08007KT M05/M11 A3039 RMK A01 T10541109  RH  065%=      5-min Rain = 0
KDO1 140709Z 08007KT M05/M11 A3039 RMK A01 T10541109  RH  065%=      5-min Rain = 0
KDO1 140710Z 08006KT M05/M11 A3039 RMK A01 T10541108  RH  066%=      5-min Rain = 0
KDO1 140711Z 08007KT M05/M11 A3039 RMK A01 T10541107  RH  066%=      5-min Rain = 0
KDO1 140712Z 08007KT M05/M11 A3038 RMK A01 T10541108  RH  066%=      5-min Rain = 0
KDO1 140713Z 08007KT M05/M11 A3039 RMK A01 T10541108  RH  066%=      5-min Rain = 0
KDO1 140714Z 08006KT M05/M11 A3039 RMK A01 T10541108  RH  066%=      5-min Rain = 0
KDO1 140715Z 08006KT M05/M11 A3039 RMK A01 T10541108  RH  066%=      5-min Rain = 0
KDO1 140716Z 08006KT M06/M11 A3039 RMK A01 T10551108  RH  066%=      5-min Rain = 0
KDO1 140717Z 07006KT M06/M11 A3039 RMK A01 T10551109  RH  066%=      5-min Rain = 0
KDO1 140718Z 08006KT M06/M11 A3039 RMK A01 T10551109  RH  066%=      5-min Rain = 0
KDO1 140719Z 08006KT M05/M11 A3038 RMK A01 T10541108  RH  066%=      5-min Rain = 0
KDO1 140720Z 09006KT M06/M11 A3038 RMK A01 T10551107  RH  066%=      5-min Rain = 0
KDO1 140721Z 08006KT M06/M11 A3038 RMK A01 T10551107  RH  067%=      5-min Rain = 0
KDO1 140722Z 08006KT M06/M11 A3038 RMK A01 T10551107  RH  067%=      5-min Rain = 0
KDO1 140723Z 08007KT M06/M11 A3038 RMK A01 T10551107  RH  067%=      5-min Rain = 0
KDO1 140724Z 08007KT M06/M11 A3038 RMK A01 T10551108  RH  066%=      5-min Rain = 0
KDO1 140725Z 08006KT M06/M11 A3038 RMK A01 T10551108  RH  066%=      5-min Rain = 0
KDO1 140726Z 08005KT M06/M11 A3038 RMK A01 T10551107  RH  067%=      5-min Rain = 0
KDO1 140727Z 09005KT M06/M11 A3038 RMK A01 T10551107  RH  067%=      5-min Rain = 0
KDO1 140728Z 08005KT M06/M11 A3038 RMK A01 T10551106  RH  067%=      5-min Rain = 0
KDO1 140729Z 07004KT M06/M11 A3038 RMK A01 T10551106  RH  068%=      5-min Rain = 0
KDO1 140730Z 06004KT M06/M11 A3038 RMK A01 T10551105  RH  068%=      5-min Rain = 0
KDO1 140731Z 06005KT M06/M11 A3038 RMK A01 T10551105  RH  068%=      5-min Rain = 0
KDO1 140732Z 07007KT M06/M11 A3038 RMK A01 T10551105  RH  068%=      5-min Rain = 0
KDO1 140733Z 07006KT M06/M11 A3038 RMK A01 T10551106  RH  068%=      5-min Rain = 0
KDO1 140734Z 08006KT M06/M11 A3038 RMK A01 T10551106  RH  068%=      5-min Rain = 0
KDO1 140735Z 08005KT M06/M11 A3038 RMK A01 T10551106  RH  067%=      5-min Rain = 0
KDO1 140736Z 08005KT M06/M11 A3038 RMK A01 T10551106  RH  067%=      5-min Rain = 0
KDO1 140737Z 06005KT M06/M11 A3038 RMK A01 T10551106  RH  067%=      5-min Rain = 0
KDO1 140738Z 07005KT M06/M11 A3038 RMK A01 T10551105  RH  068%=      5-min Rain = 0
KDO1 140739Z 07004KT M06/M11 A3038 RMK A01 T10551105  RH  068%=      5-min Rain = 0
KDO1 140740Z 07005KT M06/M10 A3038 RMK A01 T10551104  RH  069%=      5-min Rain = 0
KDO1 140741Z 07007KT M06/M10 A3038 RMK A01 T10551104  RH  068%=      5-min Rain = 0
KDO1 140742Z 07006KT M06/M11 A3038 RMK A01 T10561107  RH  067%=      5-min Rain = 0
KDO1 140743Z 08006KT M06/M11 A3038 RMK A01 T10561108  RH  067%=      5-min Rain = 0
KDO1 140744Z 08005KT M06/M11 A3038 RMK A01 T10561107  RH  067%=      5-min Rain = 0
KDO1 140745Z 08006KT M06/M11 A3038 RMK A01 T10571107  RH  068%=      5-min Rain = 0
KDO1 140746Z 08006KT M06/M11 A3038 RMK A01 T10561107  RH  068%=      5-min Rain = 0
KDO1 140747Z 07005KT M06/M11 A3038 RMK A01 T10561106  RH  068%=      5-min Rain = 0
KDO1 140748Z 07004KT M06/M11 A3038 RMK A01 T10571107  RH  068%=      5-min Rain = 0
KDO1 140749Z 08004KT M06/M11 A3038 RMK A01 T10571106  RH  068%=      5-min Rain = 0
KDO1 140750Z 08004KT M06/M11 A3038 RMK A01 T10571105  RH  069%=      5-min Rain = 0
KDO1 140751Z 08004KT M06/M10 A3038 RMK A01 T10571104  RH  069%=      5-min Rain = 0
KDO1 140752Z 07004KT M06/M11 A3038 RMK A01 T10571105  RH  069%=      5-min Rain = 0
KDO1 140753Z 07005KT M06/M11 A3038 RMK A01 T10571106  RH  069%=      5-min Rain = 0
KDO1 140754Z 07005KT M06/M11 A3038 RMK A01 T10581107  RH  068%=      5-min Rain = 0
KDO1 140755Z 07005KT M06/M11 A3038 RMK A01 T10581108  RH  068%=      5-min Rain = 0
KDO1 140756Z 07004KT M06/M11 A3038 RMK A01 T10581109  RH  067%=      5-min Rain = 0
KDO1 140757Z 06005KT M06/M11 A3038 RMK A01 T10581109  RH  067%=      5-min Rain = 0
KDO1 140758Z 07004KT M06/M11 A3038 RMK A01 T10581108  RH  068%=      5-min Rain = 0
KDO1 140759Z 08004KT M06/M11 A3038 RMK A01 T10581108  RH  068%=      5-min Rain = 0
KDO1 140800Z 07005KT M06/M11 A3038 RMK A01 T10591107  RH  068%=      5-min Rain = 0
KDO1 140801Z 08005KT M06/M11 A3038 RMK A01 T10591108  RH  068%=      5-min Rain = 0
KDO1 140802Z 07006KT M06/M11 A3038 RMK A01 T10591109  RH  068%=      5-min Rain = 0
KDO1 140803Z 07006KT M06/M11 A3038 RMK A01 T10591109  RH  068%=      5-min Rain = 0
KDO1 140804Z 08005KT M06/M11 A3038 RMK A01 T10591108  RH  068%=      5-min Rain = 0
KDO1 140805Z 08004KT M06/M11 A3038 RMK A01 T10591109  RH  068%=      5-min Rain = 0
KDO1 140806Z 08004KT M06/M11 A3038 RMK A01 T10601109  RH  068%=      5-min Rain = 0
KDO1 140807Z 08004KT M06/M11 A3038 RMK A01 T10601107  RH  069%=      5-min Rain = 0
KDO1 140808Z 08004KT M06/M11 A3038 RMK A01 T10601107  RH  070%=      5-min Rain = 0
KDO1 140809Z 08004KT M06/M11 A3038 RMK A01 T10611107  RH  070%=      5-min Rain = 0
KDO1 140810Z 08004KT M06/M11 A3038 RMK A01 T10611107  RH  070%=      5-min Rain = 0
KDO1 140811Z 08005KT M06/M11 A3038 RMK A01 T10611107  RH  070%=      5-min Rain = 0
KDO1 140812Z 08005KT M06/M11 A3038 RMK A01 T10611108  RH  069%=      5-min Rain = 0
KDO1 140813Z 08005KT M06/M11 A3038 RMK A01 T10611108  RH  069%=      5-min Rain = 0
KDO1 140814Z 08006KT M06/M11 A3038 RMK A01 T10611108  RH  070%=      5-min Rain = 0
KDO1 140815Z 07005KT M06/M11 A3038 RMK A01 T10611107  RH  070%=      5-min Rain = 0
KDO1 140816Z 07004KT M06/M11 A3038 RMK A01 T10611108  RH  070%=      5-min Rain = 0
KDO1 140817Z 07004KT M06/M11 A3038 RMK A01 T10611108  RH  070%=      5-min Rain = 0
KDO1 140818Z 07004KT M06/M11 A3038 RMK A01 T10611107  RH  070%=      5-min Rain = 0
KDO1 140819Z 07004KT M06/M11 A3038 RMK A01 T10611107  RH  070%=      5-min Rain = 0
KDO1 140820Z 07004KT M06/M11 A3038 RMK A01 T10611107  RH  070%=      5-min Rain = 0
KDO1 140821Z 07004KT M06/M11 A3038 RMK A01 T10621108  RH  070%=      5-min Rain = 0
KDO1 140822Z 07004KT M06/M11 A3038 RMK A01 T10621108  RH  070%=      5-min Rain = 0
KDO1 140823Z 07004KT M06/M11 A3038 RMK A01 T10611108  RH  070%=      5-min Rain = 0
KDO1 140824Z 07003KT M06/M11 A3038 RMK A01 T10621108  RH  070%=      5-min Rain = 0
KDO1 140825Z 07004KT M06/M11 A3038 RMK A01 T10621108  RH  070%=      5-min Rain = 0
KDO1 140826Z 06005KT M06/M11 A3038 RMK A01 T10621107  RH  071%=      5-min Rain = 0
KDO1 140827Z 07005KT M06/M11 A3038 RMK A01 T10621107  RH  070%=      5-min Rain = 0
KDO1 140828Z 07004KT M06/M11 A3038 RMK A01 T10621108  RH  070%=      5-min Rain = 0
KDO1 140829Z 07004KT M06/M11 A3038 RMK A01 T10631108  RH  070%=      5-min Rain = 0
KDO1 140830Z 07004KT M06/M11 A3038 RMK A01 T10631108  RH  070%=      5-min Rain = 0
KDO1 140831Z 07004KT M06/M11 A3038 RMK A01 T10631108  RH  070%=      5-min Rain = 0
KDO1 140832Z 06004KT M06/M11 A3038 RMK A01 T10631108  RH  071%=      5-min Rain = 0
KDO1 140833Z 07004KT M06/M11 A3038 RMK A01 T10631108  RH  070%=      5-min Rain = 0
KDO1 140834Z 07004KT M06/M11 A3038 RMK A01 T10631109  RH  070%=      5-min Rain = 0
KDO1 140835Z 07004KT M06/M11 A3038 RMK A01 T10631108  RH  070%=      5-min Rain = 0
KDO1 140836Z 06004KT M06/M11 A3038 RMK A01 T10631108  RH  070%=      5-min Rain = 0
KDO1 140837Z 06004KT M06/M11 A3038 RMK A01 T10631108  RH  070%=      5-min Rain = 0
KDO1 140838Z 06004KT M06/M11 A3038 RMK A01 T10631108  RH  071%=      5-min Rain = 0
KDO1 140839Z 06004KT M06/M11 A3038 RMK A01 T10631107  RH  071%=      5-min Rain = 0
KDO1 140840Z 06004KT M06/M11 A3038 RMK A01 T10641107  RH  071%=      5-min Rain = 0
KDO1 140841Z 06004KT M06/M11 A3038 RMK A01 T10641107  RH  071%=      5-min Rain = 0
KDO1 140842Z 06004KT M06/M11 A3038 RMK A01 T10641106  RH  072%=      5-min Rain = 0
KDO1 140843Z 06004KT M06/M11 A3038 RMK A01 T10641106  RH  072%=      5-min Rain = 0
KDO1 140844Z 06004KT M07/M11 A3038 RMK A01 T10651107  RH  072%=      5-min Rain = 0
KDO1 140845Z 06004KT M07/M11 A3038 RMK A01 T10651106  RH  072%=      5-min Rain = 0
KDO1 140846Z 06004KT M07/M11 A3039 RMK A01 T10651106  RH  073%=      5-min Rain = 0
KDO1 140847Z 06004KT M07/M11 A3039 RMK A01 T10651107  RH  072%=      5-min Rain = 0
KDO1 140848Z 05004KT M07/M11 A3039 RMK A01 T10651107  RH  072%=      5-min Rain = 0
KDO1 140849Z 05003KT M07/M11 A3039 RMK A01 T10651107  RH  072%=      5-min Rain = 0
KDO1 140850Z 05003KT M07/M11 A3039 RMK A01 T10651106  RH  073%=      5-min Rain = 0
KDO1 140851Z 04003KT M07/M11 A3039 RMK A01 T10651105  RH  073%=      5-min Rain = 0
KDO1 140852Z 04003KT M07/M11 A3039 RMK A01 T10651105  RH  073%=      5-min Rain = 0
KDO1 140853Z 05003KT M07/M11 A3039 RMK A01 T10661105  RH  074%=      5-min Rain = 0
KDO1 140854Z 05003KT M07/M11 A3039 RMK A01 T10661105  RH  074%=      5-min Rain = 0
KDO1 140855Z 05004KT M07/M11 A3039 RMK A01 T10661105  RH  073%=      5-min Rain = 0
KDO1 140856Z 05005KT M07/M11 A3039 RMK A01 T10661106  RH  073%=      5-min Rain = 0
KDO1 140857Z 05005KT M07/M11 A3039 RMK A01 T10661106  RH  073%=      5-min Rain = 0
KDO1 140858Z 05006KT M07/M11 A3039 RMK A01 T10661106  RH  073%=      5-min Rain = 0
KDO1 140859Z 05005KT M07/M11 A3039 RMK A01 T10661106  RH  073%=      5-min Rain = 0
KDO1 140900Z 05005KT M07/M11 A3039 RMK A01 T10671106  RH  074%=      5-min Rain = 0
KDO1 140901Z 05005KT M07/M11 A3039 RMK A01 T10671106  RH  074%=      5-min Rain = 0
KDO1 140902Z 04004KT M07/M11 A3039 RMK A01 T10671106  RH  074%=      5-min Rain = 0
KDO1 140903Z 05004KT M07/M11 A3039 RMK A01 T10671105  RH  075%=      5-min Rain = 0
KDO1 140904Z 04005KT M07/M11 A3039 RMK A01 T10681105  RH  075%=      5-min Rain = 0
KDO1 140905Z 05005KT M07/M10 A3039 RMK A01 T10681104  RH  076%=      5-min Rain = 0
KDO1 140906Z 05005KT M07/M10 A3039 RMK A01 T10681104  RH  076%=      5-min Rain = 0
KDO1 140907Z 05005KT M07/M10 A3039 RMK A01 T10681104  RH  076%=      5-min Rain = 0
KDO1 140908Z 05005KT M07/M10 A3039 RMK A01 T10691104  RH  076%=      5-min Rain = 0
KDO1 140909Z 05005KT M07/M10 A3039 RMK A01 T10691104  RH  076%=      5-min Rain = 0
KDO1 140910Z 05004KT M07/M10 A3039 RMK A01 T10691104  RH  076%=      5-min Rain = 0
KDO1 140911Z 05005KT M07/M10 A3039 RMK A01 T10691104  RH  077%=      5-min Rain = 0
KDO1 140912Z 05004KT M07/M10 A3039 RMK A01 T10701103  RH  077%=      5-min Rain = 0
KDO1 140913Z 04004KT M07/M10 A3039 RMK A01 T10701103  RH  077%=      5-min Rain = 0
KDO1 140914Z 04004KT M07/M10 A3039 RMK A01 T10701103  RH  077%=      5-min Rain = 0
KDO1 140915Z 05004KT M07/M10 A3039 RMK A01 T10701103  RH  077%=      5-min Rain = 0
KDO1 140916Z 05004KT M07/M10 A3039 RMK A01 T10701102  RH  078%=      5-min Rain = 0
KDO1 140917Z 05005KT M07/M10 A3039 RMK A01 T10701102  RH  078%=      5-min Rain = 0
KDO1 140918Z 05004KT M07/M10 A3039 RMK A01 T10711102  RH  078%=      5-min Rain = 0
KDO1 140919Z 05004KT M07/M10 A3039 RMK A01 T10711102  RH  078%=      5-min Rain = 0
KDO1 140920Z 04004KT M07/M10 A3039 RMK A01 T10711102  RH  078%=      5-min Rain = 0
KDO1 140921Z 04004KT M07/M10 A3039 RMK A01 T10711102  RH  079%=      5-min Rain = 0
KDO1 140922Z 05005KT M07/M10 A3039 RMK A01 T10711101  RH  079%=      5-min Rain = 0
KDO1 140923Z 05004KT M07/M10 A3039 RMK A01 T10711101  RH  079%=      5-min Rain = 0
KDO1 140924Z 05005KT M07/M10 A3039 RMK A01 T10711101  RH  079%=      5-min Rain = 0
KDO1 140925Z 05005KT M07/M10 A3039 RMK A01 T10721101  RH  079%=      5-min Rain = 0
KDO1 140926Z 05004KT M07/M10 A3039 RMK A01 T10711100  RH  080%=      5-min Rain = 0
KDO1 140927Z 05004KT M07/M10 A3039 RMK A01 T10721100  RH  080%=      5-min Rain = 0
KDO1 140928Z 05005KT M07/M10 A3039 RMK A01 T10721100  RH  081%=      5-min Rain = 0
KDO1 140929Z 05004KT M07/M10 A3039 RMK A01 T10721099  RH  081%=      5-min Rain = 0
KDO1 140930Z 05005KT M07/M10 A3039 RMK A01 T10731099  RH  081%=      5-min Rain = 0
KDO1 140931Z 05005KT M07/M10 A3039 RMK A01 T10731099  RH  082%=      5-min Rain = 0
KDO1 140932Z 05004KT M07/M10 A3039 RMK A01 T10731099  RH  082%=      5-min Rain = 0
KDO1 140933Z 05004KT M07/M10 A3039 RMK A01 T10731099  RH  082%=      5-min Rain = 0
KDO1 140934Z 05005KT M07/M10 A3039 RMK A01 T10731098  RH  082%=      5-min Rain = 0
KDO1 140935Z 05005KT M07/M10 A3039 RMK A01 T10731098  RH  082%=      5-min Rain = 0
KDO1 140936Z 05004KT M07/M10 A3039 RMK A01 T10731098  RH  082%=      5-min Rain = 0
KDO1 140937Z 05004KT M07/M10 A3039 RMK A01 T10731098  RH  082%=      5-min Rain = 0
KDO1 140938Z 05004KT M07/M10 A3039 RMK A01 T10731098  RH  083%=      5-min Rain = 0
KDO1 140939Z 05003KT M07/M10 A3039 RMK A01 T10741098  RH  083%=      5-min Rain = 0
KDO1 140940Z 05004KT M07/M10 A3039 RMK A01 T10741098  RH  083%=      5-min Rain = 0
KDO1 140941Z 05004KT M07/M10 A3039 RMK A01 T10731098  RH  083%=      5-min Rain = 0
KDO1 140942Z 05004KT M07/M10 A3039 RMK A01 T10731098  RH  083%=      5-min Rain = 0
KDO1 140943Z 05004KT M07/M10 A3039 RMK A01 T10731097  RH  083%=      5-min Rain = 0
KDO1 140944Z 05003KT M07/M10 A3039 RMK A01 T10741097  RH  083%=      5-min Rain = 0
KDO1 140945Z 05004KT M07/M10 A3039 RMK A01 T10741097  RH  084%=      5-min Rain = 0
KDO1 140946Z 05004KT M07/M10 A3039 RMK A01 T10741097  RH  084%=      5-min Rain = 0
KDO1 140947Z 05005KT M07/M10 A3039 RMK A01 T10741097  RH  084%=      5-min Rain = 0
KDO1 140948Z 05004KT M07/M10 A3039 RMK A01 T10741096  RH  084%=      5-min Rain = 0
KDO1 140949Z 05005KT M07/M10 A3039 RMK A01 T10741096  RH  084%=      5-min Rain = 0
KDO1 140950Z 05004KT M07/M10 A3039 RMK A01 T10741096  RH  084%=      5-min Rain = 0
KDO1 140951Z 05004KT M07/M10 A3039 RMK A01 T10741096  RH  084%=      5-min Rain = 0
KDO1 140952Z 05004KT M07/M10 A3039 RMK A01 T10731095  RH  084%=      5-min Rain = 0
KDO1 140953Z 05004KT M07/M10 A3039 RMK A01 T10731095  RH  084%=      5-min Rain = 0
KDO1 140954Z 05005KT M07/M10 A3039 RMK A01 T10731095  RH  085%=      5-min Rain = 0
KDO1 140955Z 05003KT M07/M09 A3039 RMK A01 T10731094  RH  085%=      5-min Rain = 0
KDO1 140956Z 05004KT M07/M09 A3039 RMK A01 T10731094  RH  085%=      5-min Rain = 0
KDO1 140957Z 05003KT M07/M09 A3039 RMK A01 T10721093  RH  085%=      5-min Rain = 0
KDO1 140958Z 05003KT M07/M09 A3039 RMK A01 T10731094  RH  085%=      5-min Rain = 0
KDO1 140959Z 05003KT M07/M09 A3039 RMK A01 T10731094  RH  085%=      5-min Rain = 0
KDO1 141000Z 05005KT M07/M09 A3039 RMK A01 T10721093  RH  085%=      5-min Rain = 0
KDO1 141001Z 05005KT M07/M09 A3039 RMK A01 T10721093  RH  085%=      5-min Rain = 0
KDO1 141002Z 05004KT M07/M09 A3039 RMK A01 T10721094  RH  084%=      5-min Rain = 0
KDO1 141003Z 05004KT M07/M09 A3039 RMK A01 T10721094  RH  085%=      5-min Rain = 0
KDO1 141004Z 05005KT M07/M09 A3039 RMK A01 T10721093  RH  085%=      5-min Rain = 0
KDO1 141005Z 05004KT M07/M09 A3039 RMK A01 T10721093  RH  085%=      5-min Rain = 0
KDO1 141006Z 05003KT M07/M09 A3039 RMK A01 T10721093  RH  085%=      5-min Rain = 0
KDO1 141007Z 05005KT M07/M09 A3039 RMK A01 T10721092  RH  085%=      5-min Rain = 0
KDO1 141008Z 06004KT M07/M09 A3039 RMK A01 T10721092  RH  085%=      5-min Rain = 0
KDO1 141009Z 05003KT M07/M09 A3038 RMK A01 T10721092  RH  085%=      5-min Rain = 0
KDO1 141010Z 05004KT M07/M09 A3038 RMK A01 T10721091  RH  086%=      5-min Rain = 0
KDO1 141011Z 05004KT M07/M09 A3038 RMK A01 T10711091  RH  086%=      5-min Rain = 0
KDO1 141012Z 05004KT M07/M09 A3038 RMK A01 T10711091  RH  086%=      5-min Rain = 0
KDO1 141013Z 05003KT M07/M09 A3038 RMK A01 T10711091  RH  086%=      5-min Rain = 0
KDO1 141014Z 04005KT M07/M09 A3038 RMK A01 T10711091  RH  086%=      5-min Rain = 0
KDO1 141015Z 04005KT M07/M09 A3038 RMK A01 T10711090  RH  086%=      5-min Rain = 0
KDO1 141016Z 05005KT M07/M09 A3038 RMK A01 T10711090  RH  086%=      5-min Rain = 0
KDO1 141017Z 04005KT M07/M09 A3038 RMK A01 T10711091  RH  086%=      5-min Rain = 0
KDO1 141018Z 05006KT M07/M09 A3038 RMK A01 T10711091  RH  086%=      5-min Rain = 0
KDO1 141019Z 05006KT M07/M09 A3038 RMK A01 T10721091  RH  086%=      5-min Rain = 0
KDO1 141020Z 05005KT M07/M09 A3038 RMK A01 T10711091  RH  086%=      5-min Rain = 0
KDO1 141021Z 05005KT M07/M09 A3038 RMK A01 T10721091  RH  086%=      5-min Rain = 0
KDO1 141022Z 04004KT M07/M09 A3038 RMK A01 T10721091  RH  086%=      5-min Rain = 0
KDO1 141023Z 05005KT M07/M09 A3038 RMK A01 T10711091  RH  086%=      5-min Rain = 0
KDO1 141024Z 04004KT M07/M09 A3038 RMK A01 T10721091  RH  086%=      5-min Rain = 0
KDO1 141025Z 05004KT M07/M09 A3038 RMK A01 T10721091  RH  086%=      5-min Rain = 0
KDO1 141026Z 05004KT M07/M09 A3038 RMK A01 T10721091  RH  086%=      5-min Rain = 0
KDO1 141027Z 05004KT M07/M09 A3038 RMK A01 T10721091  RH  086%=      5-min Rain = 0
KDO1 141028Z 04004KT M07/M09 A3038 RMK A01 T10721091  RH  086%=      5-min Rain = 0
KDO1 141029Z 04004KT M07/M09 A3038 RMK A01 T10721091  RH  086%=      5-min Rain = 0
KDO1 141030Z 05004KT M07/M09 A3038 RMK A01 T10721091  RH  086%=      5-min Rain = 0
KDO1 141031Z 05004KT M07/M09 A3038 RMK A01 T10721090  RH  087%=      5-min Rain = 0
KDO1 141032Z 04003KT M07/M09 A3038 RMK A01 T10721090  RH  087%=      5-min Rain = 0
KDO1 141033Z 05004KT M07/M09 A3038 RMK A01 T10721090  RH  087%=      5-min Rain = 0
KDO1 141034Z 05003KT M07/M09 A3038 RMK A01 T10721091  RH  086%=      5-min Rain = 0
KDO1 141035Z 04004KT M07/M09 A3038 RMK A01 T10711090  RH  086%=      5-min Rain = 0
KDO1 141036Z 05004KT M07/M09 A3038 RMK A01 T10711091  RH  086%=      5-min Rain = 0
KDO1 141037Z 05005KT M07/M09 A3038 RMK A01 T10721091  RH  086%=      5-min Rain = 0
KDO1 141038Z 05004KT M07/M09 A3038 RMK A01 T10721091  RH  086%=      5-min Rain = 0
KDO1 141039Z 05004KT M07/M09 A3038 RMK A01 T10721091  RH  087%=      5-min Rain = 0
KDO1 141040Z 05004KT M07/M09 A3038 RMK A01 T10721091  RH  087%=      5-min Rain = 0
KDO1 141041Z 05003KT M07/M09 A3038 RMK A01 T10721091  RH  087%=      5-min Rain = 0
KDO1 141042Z 04003KT M07/M09 A3038 RMK A01 T10721091  RH  087%=      5-min Rain = 0
KDO1 141043Z 04003KT M07/M09 A3038 RMK A01 T10721091  RH  087%=      5-min Rain = 0
KDO1 141044Z 05003KT M07/M09 A3038 RMK A01 T10721090  RH  087%=      5-min Rain = 0
KDO1 141045Z 05003KT M07/M09 A3038 RMK A01 T10721091  RH  087%=      5-min Rain = 0
KDO1 141046Z 05004KT M07/M09 A3038 RMK A01 T10721090  RH  087%=      5-min Rain = 0
KDO1 141047Z 06003KT M07/M09 A3038 RMK A01 T10721090  RH  087%=      5-min Rain = 0
KDO1 141048Z 07003KT M07/M09 A3038 RMK A01 T10721090  RH  087%=      5-min Rain = 0
KDO1 141049Z 06003KT M07/M09 A3038 RMK A01 T10721090  RH  087%=      5-min Rain = 0
KDO1 141050Z 06003KT M07/M09 A3038 RMK A01 T10721090  RH  087%=      5-min Rain = 0
KDO1 141051Z 05002KT M07/M09 A3038 RMK A01 T10721090  RH  087%=      5-min Rain = 0
KDO1 141052Z 06002KT M07/M09 A3038 RMK A01 T10721090  RH  087%=      5-min Rain = 0
KDO1 141053Z 05003KT M07/M09 A3038 RMK A01 T10711090  RH  087%=      5-min Rain = 0
KDO1 141054Z 06002KT M07/M09 A3038 RMK A01 T10721090  RH  087%=      5-min Rain = 0
KDO1 141055Z 06003KT M07/M09 A3038 RMK A01 T10721090  RH  087%=      5-min Rain = 0
KDO1 141056Z 07003KT M07/M09 A3038 RMK A01 T10711090  RH  087%=      5-min Rain = 0
KDO1 141057Z 06003KT M07/M09 A3038 RMK A01 T10711090  RH  086%=      5-min Rain = 0
KDO1 141058Z 06003KT M07/M09 A3038 RMK A01 T10721091  RH  086%=      5-min Rain = 0
KDO1 141059Z 06003KT M07/M09 A3038 RMK A01 T10711091  RH  086%=      5-min Rain = 0
KDO1 141100Z 06003KT M07/M09 A3038 RMK A01 T10711090  RH  086%=      5-min Rain = 0
KDO1 141101Z 06002KT M07/M09 A3038 RMK A01 T10721090  RH  087%=      5-min Rain = 0
KDO1 141102Z 06002KT M07/M09 A3038 RMK A01 T10721090  RH  087%=      5-min Rain = 0
KDO1 141103Z 06003KT M07/M09 A3038 RMK A01 T10721090  RH  087%=      5-min Rain = 0
KDO1 141104Z 07002KT M07/M09 A3038 RMK A01 T10721090  RH  087%=      5-min Rain = 0
KDO1 141105Z 07001KT M07/M09 A3038 RMK A01 T10711090  RH  087%=      5-min Rain = 0
KDO1 141106Z 07001KT M07/M09 A3038 RMK A01 T10721089  RH  088%=      5-min Rain = 0
KDO1 141107Z 06002KT M07/M09 A3038 RMK A01 T10721088  RH  088%=      5-min Rain = 0
KDO1 141108Z 06002KT M07/M09 A3038 RMK A01 T10711088  RH  088%=      5-min Rain = 0
KDO1 141109Z 07002KT M07/M09 A3038 RMK A01 T10721089  RH  087%=      5-min Rain = 0
KDO1 141110Z 07001KT M07/M09 A3038 RMK A01 T10711089  RH  087%=      5-min Rain = 0
KDO1 141111Z 07001KT M07/M09 A3038 RMK A01 T10721090  RH  087%=      5-min Rain = 0
KDO1 141112Z 06002KT M07/M09 A3038 RMK A01 T10721090  RH  087%=      5-min Rain = 0
KDO1 141113Z 06001KT M07/M09 A3038 RMK A01 T10721089  RH  088%=      5-min Rain = 0
KDO1 141114Z 07002KT M07/M09 A3038 RMK A01 T10721089  RH  088%=      5-min Rain = 0
KDO1 141115Z 09001KT M07/M09 A3038 RMK A01 T10721089  RH  088%=      5-min Rain = 0
KDO1 141116Z 08001KT M07/M09 A3038 RMK A01 T10721089  RH  088%=      5-min Rain = 0
KDO1 141117Z 09002KT M07/M09 A3038 RMK A01 T10721088  RH  088%=      5-min Rain = 0
KDO1 141118Z 08002KT M07/M09 A3038 RMK A01 T10721089  RH  088%=      5-min Rain = 0
KDO1 141119Z 07002KT M07/M09 A3038 RMK A01 T10721088  RH  088%=      5-min Rain = 0
KDO1 141120Z 07001KT M07/M09 A3038 RMK A01 T10721089  RH  088%=      5-min Rain = 0
KDO1 141121Z 06002KT M07/M09 A3038 RMK A01 T10721089  RH  088%=      5-min Rain = 0
KDO1 141122Z 06001KT M07/M09 A3038 RMK A01 T10721089  RH  087%=      5-min Rain = 0
KDO1 141123Z 06001KT M07/M09 A3038 RMK A01 T10721090  RH  087%=      5-min Rain = 0
KDO1 141124Z 06002KT M07/M09 A3038 RMK A01 T10731090  RH  087%=      5-min Rain = 0
KDO1 141125Z 05002KT M07/M09 A3038 RMK A01 T10731091  RH  087%=      5-min Rain = 0
KDO1 141126Z 05001KT M07/M09 A3038 RMK A01 T10731091  RH  087%=      5-min Rain = 0
KDO1 141127Z 06002KT M07/M09 A3038 RMK A01 T10731090  RH  087%=      5-min Rain = 0
KDO1 141128Z 06001KT M07/M09 A3038 RMK A01 T10731090  RH  088%=      5-min Rain = 0
KDO1 141129Z 06001KT M07/M09 A3038 RMK A01 T10731090  RH  088%=      5-min Rain = 0
KDO1 141130Z 05002KT M07/M09 A3038 RMK A01 T10731090  RH  088%=      5-min Rain = 0
KDO1 141131Z 05002KT M07/M09 A3038 RMK A01 T10731090  RH  088%=      5-min Rain = 0
KDO1 141132Z 06002KT M07/M09 A3038 RMK A01 T10731090  RH  088%=      5-min Rain = 0
KDO1 141133Z 06002KT M07/M09 A3038 RMK A01 T10741090  RH  088%=      5-min Rain = 0
KDO1 141134Z 06002KT M07/M09 A3038 RMK A01 T10741090  RH  088%=      5-min Rain = 0
KDO1 141135Z 06002KT M07/M09 A3038 RMK A01 T10741090  RH  088%=      5-min Rain = 0
KDO1 141136Z 06002KT M07/M09 A3038 RMK A01 T10741090  RH  088%=      5-min Rain = 0
KDO1 141137Z 07001KT M07/M09 A3038 RMK A01 T10741090  RH  089%=      5-min Rain = 0
KDO1 141138Z 07001KT M08/M09 A3038 RMK A01 T10751090  RH  089%=      5-min Rain = 0
KDO1 141139Z 07001KT M08/M09 A3038 RMK A01 T10751090  RH  089%=      5-min Rain = 0
KDO1 141140Z 07001KT M08/M09 A3038 RMK A01 T10751090  RH  089%=      5-min Rain = 0
KDO1 141141Z 06001KT M08/M09 A3038 RMK A01 T10751090  RH  089%=      5-min Rain = 0
KDO1 141142Z 06001KT M07/M09 A3038 RMK A01 T10741089  RH  089%=      5-min Rain = 0
KDO1 141143Z 06001KT M08/M09 A3038 RMK A01 T10751089  RH  090%=      5-min Rain = 0
KDO1 141144Z 06001KT M08/M09 A3038 RMK A01 T10751089  RH  090%=      5-min Rain = 0
KDO1 141145Z 06001KT M08/M09 A3038 RMK A01 T10751089  RH  090%=      5-min Rain = 0
KDO1 141146Z 06001KT M08/M09 A3038 RMK A01 T10751089  RH  090%=      5-min Rain = 0
KDO1 141147Z 06002KT M08/M09 A3038 RMK A01 T10751089  RH  090%=      5-min Rain = 0
KDO1 141148Z 05001KT M08/M09 A3038 RMK A01 T10751088  RH  090%=      5-min Rain = 0
KDO1 141149Z 05001KT M08/M09 A3038 RMK A01 T10751088  RH  090%=      5-min Rain = 0
KDO1 141150Z 05001KT M08/M09 A3038 RMK A01 T10751089  RH  090%=      5-min Rain = 0
KDO1 141151Z 05001KT M08/M09 A3038 RMK A01 T10751088  RH  091%=      5-min Rain = 0
KDO1 141152Z 06001KT M08/M09 A3038 RMK A01 T10751088  RH  091%=      5-min Rain = 0
KDO1 141153Z 06000KT M08/M09 A3038 RMK A01 T10761088  RH  091%=      5-min Rain = 0
KDO1 141154Z 00000KT M08/M09 A3038 RMK A01 T10761088  RH  091%=      5-min Rain = 0
KDO1 141155Z 05000KT M08/M09 A3038 RMK A01 T10761088  RH  091%=      5-min Rain = 0
KDO1 141156Z 05001KT M08/M09 A3038 RMK A01 T10761088  RH  091%=      5-min Rain = 0
KDO1 141157Z 05001KT M08/M09 A3038 RMK A01 T10761087  RH  091%=      5-min Rain = 0
KDO1 141158Z 05001KT M08/M09 A3038 RMK A01 T10761087  RH  091%=      5-min Rain = 0
KDO1 141159Z 05001KT M08/M09 A3038 RMK A01 T10761087  RH  091%=      5-min Rain = 0
KDO1 141200Z 05001KT M08/M09 A3038 RMK A01 T10761088  RH  091%=      5-min Rain = 0
KDO1 141201Z 05001KT M08/M09 A3038 RMK A01 T10761087  RH  092%=      5-min Rain = 0
KDO1 141202Z 05001KT M08/M09 A3038 RMK A01 T10761088  RH  092%=      5-min Rain = 0
KDO1 141203Z 06001KT M08/M09 A3038 RMK A01 T10761088  RH  092%=      5-min Rain = 0
KDO1 141204Z 06000KT M08/M09 A3038 RMK A01 T10761087  RH  092%=      5-min Rain = 0
KDO1 141205Z 06000KT M08/M09 A3038 RMK A01 T10761087  RH  092%=      5-min Rain = 0
KDO1 141206Z 06001KT M08/M09 A3038 RMK A01 T10761087  RH  092%=      5-min Rain = 0
KDO1 141207Z 06001KT M08/M09 A3038 RMK A01 T10771087  RH  092%=      5-min Rain = 0
KDO1 141208Z 06001KT M08/M09 A3038 RMK A01 T10771087  RH  093%=      5-min Rain = 0
KDO1 141209Z 06001KT M08/M09 A3038 RMK A01 T10771087  RH  093%=      5-min Rain = 0
KDO1 141210Z 06000KT M08/M09 A3038 RMK A01 T10771087  RH  093%=      5-min Rain = 0
KDO1 141211Z 06001KT M08/M09 A3038 RMK A01 T10771087  RH  093%=      5-min Rain = 0
KDO1 141212Z 06001KT M08/M09 A3038 RMK A01 T10771087  RH  093%=      5-min Rain = 0
KDO1 141213Z 06000KT M08/M09 A3038 RMK A01 T10771087  RH  093%=      5-min Rain = 0
KDO1 141214Z 00000KT M08/M09 A3038 RMK A01 T10771087  RH  092%=      5-min Rain = 0
KDO1 141215Z 00000KT M08/M09 A3038 RMK A01 T10771087  RH  092%=      5-min Rain = 0
KDO1 141216Z 00000KT M08/M09 A3038 RMK A01 T10771087  RH  092%=      5-min Rain = 0
KDO1 141217Z 00000KT M08/M09 A3038 RMK A01 T10771087  RH  093%=      5-min Rain = 0
KDO1 141218Z 00000KT M08/M09 A3038 RMK A01 T10771087  RH  093%=      5-min Rain = 0
KDO1 141219Z 00000KT M08/M09 A3038 RMK A01 T10771087  RH  093%=      5-min Rain = 0
KDO1 141220Z 00000KT M08/M09 A3038 RMK A01 T10771086  RH  093%=      5-min Rain = 0
KDO1 141221Z 00000KT M08/M09 A3038 RMK A01 T10771087  RH  093%=      5-min Rain = 0
KDO1 141222Z 00000KT M08/M09 A3038 RMK A01 T10781087  RH  093%=      5-min Rain = 0
KDO1 141223Z 00000KT M08/M09 A3038 RMK A01 T10771086  RH  094%=      5-min Rain = 0
KDO1 141224Z 00000KT M08/M09 A3038 RMK A01 T10781086  RH  094%=      5-min Rain = 0
KDO1 141225Z 00000KT M08/M09 A3038 RMK A01 T10771085  RH  094%=      5-min Rain = 0
KDO1 141226Z 00000KT M08/M09 A3038 RMK A01 T10781085  RH  094%=      5-min Rain = 0
KDO1 141227Z 00000KT M08/M09 A3038 RMK A01 T10771085  RH  094%=      5-min Rain = 0
KDO1 141228Z 00000KT M08/M09 A3038 RMK A01 T10771085  RH  094%=      5-min Rain = 0
KDO1 141229Z 00000KT M08/M09 A3038 RMK A01 T10771085  RH  094%=      5-min Rain = 0
KDO1 141230Z 00000KT M08/M09 A3038 RMK A01 T10771085  RH  094%=      5-min Rain = 0
KDO1 141231Z 00000KT M08/M09 A3038 RMK A01 T10771085  RH  094%=      5-min Rain = 0
KDO1 141232Z 00000KT M08/M09 A3038 RMK A01 T10761085  RH  094%=      5-min Rain = 0
KDO1 141233Z 00000KT M08/M09 A3038 RMK A01 T10771085  RH  094%=      5-min Rain = 0
KDO1 141234Z 00000KT M08/M09 A3038 RMK A01 T10761085  RH  094%=      5-min Rain = 0
KDO1 141235Z 00000KT M08/M09 A3038 RMK A01 T10761085  RH  094%=      5-min Rain = 0
KDO1 141236Z 00000KT M08/M09 A3038 RMK A01 T10761085  RH  093%=      5-min Rain = 0
KDO1 141237Z 00000KT M08/M09 A3038 RMK A01 T10761085  RH  093%=      5-min Rain = 0
KDO1 141238Z 10000KT M08/M09 A3038 RMK A01 T10761085  RH  093%=      5-min Rain = 0
KDO1 141239Z 10001KT M08/M08 A3038 RMK A01 T10751084  RH  094%=      5-min Rain = 0
KDO1 141240Z 10001KT M08/M08 A3038 RMK A01 T10751084  RH  094%=      5-min Rain = 0
KDO1 141241Z 00000KT M08/M08 A3039 RMK A01 T10751084  RH  093%=      5-min Rain = 0
KDO1 141242Z 00000KT M08/M08 A3039 RMK A01 T10751084  RH  093%=      5-min Rain = 0
KDO1 141243Z 00000KT M08/M08 A3039 RMK A01 T10751083  RH  093%=      5-min Rain = 0
KDO1 141244Z 00000KT M08/M08 A3039 RMK A01 T10751084  RH  093%=      5-min Rain = 0
KDO1 141245Z 09000KT M08/M08 A3039 RMK A01 T10751084  RH  093%=      5-min Rain = 0
KDO1 141246Z 09000KT M08/M08 A3039 RMK A01 T10751084  RH  093%=      5-min Rain = 0
KDO1 141247Z 00000KT M08/M09 A3039 RMK A01 T10751085  RH  093%=      5-min Rain = 0
KDO1 141248Z 00000KT M08/M09 A3039 RMK A01 T10751085  RH  092%=      5-min Rain = 0
KDO1 141249Z 00000KT M08/M09 A3039 RMK A01 T10751086  RH  092%=      5-min Rain = 0
KDO1 141250Z 00000KT M08/M09 A3039 RMK A01 T10751085  RH  092%=      5-min Rain = 0
KDO1 141251Z 10000KT M08/M09 A3039 RMK A01 T10751086  RH  092%=      5-min Rain = 0
KDO1 141252Z 10000KT M08/M09 A3039 RMK A01 T10751085  RH  092%=      5-min Rain = 0
KDO1 141253Z 10000KT M07/M09 A3039 RMK A01 T10741086  RH  092%=      5-min Rain = 0
KDO1 141254Z 10000KT M07/M09 A3039 RMK A01 T10741085  RH  092%=      5-min Rain = 0
KDO1 141255Z 09000KT M07/M09 A3039 RMK A01 T10741085  RH  092%=      5-min Rain = 0
KDO1 141256Z 09000KT M07/M09 A3039 RMK A01 T10741085  RH  092%=      5-min Rain = 0
KDO1 141257Z 00000KT M07/M09 A3039 RMK A01 T10741085  RH  092%=      5-min Rain = 0
KDO1 141258Z 08001KT M07/M09 A3039 RMK A01 T10741085  RH  092%=      5-min Rain = 0
KDO1 141259Z 09001KT M07/M08 A3039 RMK A01 T10741084  RH  092%=      5-min Rain = 0
KDO1 141300Z 09000KT M07/M09 A3039 RMK A01 T10741085  RH  092%=      5-min Rain = 0
KDO1 141301Z 10000KT M07/M09 A3039 RMK A01 T10741085  RH  092%=      5-min Rain = 0
KDO1 141302Z 10001KT M07/M08 A3039 RMK A01 T10741084  RH  092%=      5-min Rain = 0
KDO1 141303Z 10000KT M07/M09 A3039 RMK A01 T10741085  RH  092%=      5-min Rain = 0
KDO1 141304Z 09001KT M07/M09 A3039 RMK A01 T10741085  RH  092%=      5-min Rain = 0
KDO1 141305Z 09001KT M07/M09 A3039 RMK A01 T10741085  RH  092%=      5-min Rain = 0
KDO1 141306Z 10001KT M07/M08 A3039 RMK A01 T10741084  RH  092%=      5-min Rain = 0
KDO1 141307Z 10001KT M07/M08 A3039 RMK A01 T10731084  RH  092%=      5-min Rain = 0
KDO1 141308Z 10001KT M07/M09 A3039 RMK A01 T10731085  RH  092%=      5-min Rain = 0
KDO1 141309Z 10001KT M07/M09 A3039 RMK A01 T10731085  RH  092%=      5-min Rain = 0
KDO1 141310Z 10001KT M07/M09 A3039 RMK A01 T10731085  RH  092%=      5-min Rain = 0
KDO1 141311Z 10001KT M07/M09 A3039 RMK A01 T10741085  RH  092%=      5-min Rain = 0
KDO1 141312Z 11001KT M07/M09 A3039 RMK A01 T10741085  RH  092%=      5-min Rain = 0
KDO1 141313Z 11001KT M07/M09 A3039 RMK A01 T10741085  RH  092%=      5-min Rain = 0
KDO1 141314Z 11001KT M07/M09 A3039 RMK A01 T10741085  RH  092%=      5-min Rain = 0
KDO1 141315Z 11001KT M07/M09 A3039 RMK A01 T10741085  RH  092%=      5-min Rain = 0
KDO1 141316Z 10001KT M07/M09 A3039 RMK A01 T10741085  RH  092%=      5-min Rain = 0
KDO1 141317Z 10001KT M07/M09 A3039 RMK A01 T10741085  RH  092%=      5-min Rain = 0
KDO1 141318Z 10001KT M08/M09 A3039 RMK A01 T10751085  RH  092%=      5-min Rain = 0
KDO1 141319Z 10001KT M08/M09 A3039 RMK A01 T10751085  RH  092%=      5-min Rain = 0
KDO1 141320Z 09001KT M08/M09 A3039 RMK A01 T10751085  RH  092%=      5-min Rain = 0
KDO1 141321Z 10001KT M08/M09 A3039 RMK A01 T10751085  RH  093%=      5-min Rain = 0
KDO1 141322Z 10001KT M08/M09 A3039 RMK A01 T10761085  RH  093%=      5-min Rain = 0
KDO1 141323Z 10001KT M08/M09 A3039 RMK A01 T10761085  RH  093%=      5-min Rain = 0
KDO1 141324Z 10001KT M08/M09 A3039 RMK A01 T10761085  RH  093%=      5-min Rain = 0
KDO1 141325Z 10001KT M08/M09 A3039 RMK A01 T10761085  RH  094%=      5-min Rain = 0
KDO1 141326Z 10001KT M08/M09 A3039 RMK A01 T10771085  RH  094%=      5-min Rain = 0
KDO1 141327Z 10001KT M08/M09 A3039 RMK A01 T10771085  RH  094%=      5-min Rain = 0
KDO1 141328Z 10001KT M08/M09 A3039 RMK A01 T10771085  RH  094%=      5-min Rain = 0
KDO1 141329Z 10001KT M08/M09 A3039 RMK A01 T10771085  RH  094%=      5-min Rain = 0
KDO1 141330Z 10001KT M08/M09 A3039 RMK A01 T10771085  RH  094%=      5-min Rain = 0
KDO1 141331Z 10001KT M08/M09 A3039 RMK A01 T10781085  RH  094%=      5-min Rain = 0
KDO1 141332Z 10001KT M08/M09 A3039 RMK A01 T10781085  RH  095%=      5-min Rain = 0
KDO1 141333Z 10001KT M08/M09 A3039 RMK A01 T10781085  RH  095%=      5-min Rain = 0
KDO1 141334Z 10001KT M08/M09 A3039 RMK A01 T10781085  RH  095%=      5-min Rain = 0
KDO1 141335Z 10001KT M08/M08 A3039 RMK A01 T10781084  RH  095%=      5-min Rain = 0
KDO1 141336Z 10001KT M08/M09 A3039 RMK A01 T10781085  RH  095%=      5-min Rain = 0
KDO1 141337Z 10001KT M08/M08 A3039 RMK A01 T10781084  RH  095%=      5-min Rain = 0
KDO1 141338Z 10001KT M08/M08 A3039 RMK A01 T10781084  RH  095%=      5-min Rain = 0
KDO1 141339Z 10001KT M08/M08 A3039 RMK A01 T10781084  RH  096%=      5-min Rain = 0
KDO1 141340Z 10000KT M08/M08 A3039 RMK A01 T10781084  RH  096%=      5-min Rain = 0
KDO1 141341Z 10000KT M08/M08 A3039 RMK A01 T10781084  RH  096%=      5-min Rain = 0
KDO1 141342Z 10000KT M08/M08 A304 RMK A01 T10781083  RH  096%=      5-min Rain = 0
KDO1 141343Z 10000KT M08/M08 A304 RMK A01 T10781083  RH  096%=      5-min Rain = 0
KDO1 141344Z 11001KT M08/M08 A304 RMK A01 T10771082  RH  096%=      5-min Rain = 0
KDO1 141345Z 11001KT M08/M08 A304 RMK A01 T10771082  RH  096%=      5-min Rain = 0
KDO1 141346Z 11001KT M08/M08 A304 RMK A01 T10761081  RH  096%=      5-min Rain = 0
KDO1 141347Z 12001KT M08/M08 A304 RMK A01 T10751081  RH  096%=      5-min Rain = 0
KDO1 141348Z 11001KT M07/M08 A304 RMK A01 T10741080  RH  096%=      5-min Rain = 0
KDO1 141349Z 12000KT M07/M08 A304 RMK A01 T10731079  RH  096%=      5-min Rain = 0
KDO1 141350Z 12001KT M07/M08 A304 RMK A01 T10721079  RH  095%=      5-min Rain = 0
KDO1 141351Z 12001KT M07/M08 A304 RMK A01 T10721079  RH  094%=      5-min Rain = 0
KDO1 141352Z 12001KT M07/M08 A304 RMK A01 T10711080  RH  093%=      5-min Rain = 0
KDO1 141353Z 11000KT M07/M08 A304 RMK A01 T10711081  RH  092%=      5-min Rain = 0
KDO1 141354Z 12001KT M07/M08 A304 RMK A01 T10711082  RH  092%=      5-min Rain = 0
KDO1 141355Z 11001KT M07/M08 A304 RMK A01 T10701081  RH  092%=      5-min Rain = 0
KDO1 141356Z 12001KT M07/M08 A304 RMK A01 T10711081  RH  093%=      5-min Rain = 0
KDO1 141357Z 12001KT M07/M08 A304 RMK A01 T10711080  RH  093%=      5-min Rain = 0
KDO1 141358Z 12002KT M07/M08 A304 RMK A01 T10711080  RH  093%=      5-min Rain = 0
KDO1 141359Z 12001KT M07/M08 A304 RMK A01 T10701080  RH  093%=      5-min Rain = 0
KDO1 141400Z 13002KT M07/M08 A304 RMK A01 T10701080  RH  092%=      5-min Rain = 0
KDO1 141401Z 13001KT M07/M08 A304 RMK A01 T10691081  RH  092%=      5-min Rain = 0
KDO1 141402Z 13002KT M07/M08 A304 RMK A01 T10691080  RH  091%=      5-min Rain = 0
KDO1 141403Z 12002KT M07/M08 A304 RMK A01 T10681081  RH  091%=      5-min Rain = 0
KDO1 141404Z 13003KT M07/M08 A304 RMK A01 T10681082  RH  090%=      5-min Rain = 0
KDO1 141405Z 13002KT M07/M08 A304 RMK A01 T10691083  RH  090%=      5-min Rain = 0
KDO1 141406Z 13002KT M07/M09 A304 RMK A01 T10691085  RH  089%=      5-min Rain = 0
KDO1 141407Z 13002KT M07/M09 A304 RMK A01 T10701086  RH  089%=      5-min Rain = 0
KDO1 141408Z 13003KT M07/M09 A304 RMK A01 T10701085  RH  089%=      5-min Rain = 0
KDO1 141409Z 13002KT M07/M09 A3039 RMK A01 T10701085  RH  089%=      5-min Rain = 0
KDO1 141410Z 12003KT M07/M08 A3039 RMK A01 T10691084  RH  089%=      5-min Rain = 0
KDO1 141411Z 12003KT M07/M08 A3039 RMK A01 T10681084  RH  089%=      5-min Rain = 0
KDO1 141412Z 13003KT M07/M09 A3039 RMK A01 T10681085  RH  088%=      5-min Rain = 0
KDO1 141413Z 13003KT M07/M08 A3039 RMK A01 T10671084  RH  088%=      5-min Rain = 0
KDO1 141414Z 13003KT M07/M09 A3039 RMK A01 T10661085  RH  087%=      5-min Rain = 0
KDO1 141415Z 13002KT M07/M08 A3039 RMK A01 T10651084  RH  087%=      5-min Rain = 0
KDO1 141416Z 16002KT M06/M08 A3039 RMK A01 T10641084  RH  086%=      5-min Rain = 0
KDO1 141417Z 16001KT M06/M08 A3039 RMK A01 T10631083  RH  086%=      5-min Rain = 0
KDO1 141418Z 16004KT M06/M08 A3039 RMK A01 T10631084  RH  085%=      5-min Rain = 0
KDO1 141419Z 15003KT M06/M09 A3039 RMK A01 T10631086  RH  083%=      5-min Rain = 0
KDO1 141420Z 14003KT M06/M09 A3039 RMK A01 T10631087  RH  083%=      5-min Rain = 0
KDO1 141421Z 16003KT M06/M09 A3039 RMK A01 T10621085  RH  084%=      5-min Rain = 0
KDO1 141422Z 16003KT M06/M09 A3039 RMK A01 T10621085  RH  083%=      5-min Rain = 0
KDO1 141423Z 14003KT M06/M08 A3039 RMK A01 T10611084  RH  084%=      5-min Rain = 0
KDO1 141424Z 13003KT M06/M08 A3039 RMK A01 T10601083  RH  084%=      5-min Rain = 0
KDO1 141425Z 14003KT M06/M08 A3039 RMK A01 T10591083  RH  083%=      5-min Rain = 0
KDO1 141426Z 16002KT M06/M08 A3039 RMK A01 T10591083  RH  083%=      5-min Rain = 0
KDO1 141427Z 16003KT M06/M08 A3039 RMK A01 T10591083  RH  083%=      5-min Rain = 0
KDO1 141428Z 16004KT M06/M08 A3039 RMK A01 T10591084  RH  083%=      5-min Rain = 0
KDO1 141429Z 17003KT M06/M08 A3039 RMK A01 T10601084  RH  083%=      5-min Rain = 0
KDO1 141430Z 16004KT M06/M09 A304 RMK A01 T10611085  RH  083%=      5-min Rain = 0
KDO1 141431Z 16003KT M06/M08 A304 RMK A01 T10611084  RH  084%=      5-min Rain = 0
KDO1 141432Z 17004KT M06/M09 A3039 RMK A01 T10611085  RH  083%=      5-min Rain = 0
KDO1 141433Z 16004KT M06/M09 A3039 RMK A01 T10611085  RH  083%=      5-min Rain = 0
KDO1 141434Z 16005KT M06/M09 A304 RMK A01 T10611086  RH  083%=      5-min Rain = 0
KDO1 141435Z 16005KT M06/M09 A304 RMK A01 T10621087  RH  082%=      5-min Rain = 0
KDO1 141436Z 15005KT M06/M09 A304 RMK A01 T10621087  RH  083%=      5-min Rain = 0
KDO1 141437Z 15004KT M06/M09 A304 RMK A01 T10621087  RH  083%=      5-min Rain = 0
KDO1 141438Z 15004KT M06/M09 A304 RMK A01 T10631087  RH  083%=      5-min Rain = 0
KDO1 141439Z 16005KT M06/M09 A304 RMK A01 T10631086  RH  084%=      5-min Rain = 0
KDO1 141440Z 16005KT M06/M09 A304 RMK A01 T10621087  RH  083%=      5-min Rain = 0
KDO1 141441Z 16004KT M06/M09 A304 RMK A01 T10621088  RH  082%=      5-min Rain = 0
KDO1 141442Z 16005KT M06/M09 A304 RMK A01 T10621087  RH  083%=      5-min Rain = 0
KDO1 141443Z 18004KT M06/M09 A304 RMK A01 T10621087  RH  083%=      5-min Rain = 0
KDO1 141444Z 17003KT M06/M09 A304 RMK A01 T10621086  RH  083%=      5-min Rain = 0
KDO1 141445Z 17005KT M06/M09 A304 RMK A01 T10621086  RH  083%=      5-min Rain = 0
KDO1 141446Z 17005KT M06/M09 A304 RMK A01 T10611086  RH  083%=      5-min Rain = 0
KDO1 141447Z 17005KT M06/M09 A304 RMK A01 T10611087  RH  082%=      5-min Rain = 0
KDO1 141448Z 17005KT M06/M09 A304 RMK A01 T10611087  RH  082%=      5-min Rain = 0
KDO1 141449Z 18005KT M06/M09 A304 RMK A01 T10611087  RH  082%=      5-min Rain = 0
KDO1 141450Z 17005KT M06/M09 A304 RMK A01 T10611087  RH  082%=      5-min Rain = 0
KDO1 141451Z 18004KT M06/M09 A304 RMK A01 T10601086  RH  082%=      5-min Rain = 0
KDO1 141452Z 16006KT M06/M09 A304 RMK A01 T10591085  RH  082%=      5-min Rain = 0
KDO1 141453Z 17005KT M06/M09 A304 RMK A01 T10581086  RH  081%=      5-min Rain = 0
KDO1 141454Z 17005KT M06/M09 A304 RMK A01 T10581087  RH  080%=      5-min Rain = 0
KDO1 141455Z 18006KT M06/M09 A304 RMK A01 T10571085  RH  080%=      5-min Rain = 0
KDO1 141456Z 17005KT M06/M09 A304 RMK A01 T10561085  RH  080%=      5-min Rain = 0
KDO1 141457Z 18005KT M06/M09 A304 RMK A01 T10561087  RH  079%=      5-min Rain = 0
KDO1 141458Z 18006KT M06/M09 A304 RMK A01 T10561087  RH  079%=      5-min Rain = 0
KDO1 141459Z 15005KT M06/M09 A304 RMK A01 T10561087  RH  079%=      5-min Rain = 0
KDO1 141500Z 16005KT M06/M09 A304 RMK A01 T10561085  RH  079%=      5-min Rain = 0
KDO1 141501Z 16005KT M05/M08 A304 RMK A01 T10541083  RH  080%=      5-min Rain = 0
KDO1 141502Z 17004KT M05/M08 A304 RMK A01 T10521083  RH  079%=      5-min Rain = 0
KDO1 141503Z 17005KT M05/M08 A304 RMK A01 T10511083  RH  078%=      5-min Rain = 0
KDO1 141504Z 18007KT M05/M08 A304 RMK A01 T10511084  RH  077%=      5-min Rain = 0
KDO1 141505Z 17007KT M05/M09 A304 RMK A01 T10521088  RH  076%=      5-min Rain = 0
KDO1 141506Z 18005KT M05/M09 A304 RMK A01 T10541089  RH  076%=      5-min Rain = 0
KDO1 141507Z 17006KT M05/M09 A304 RMK A01 T10541086  RH  078%=      5-min Rain = 0
KDO1 141508Z 15005KT M05/M09 A304 RMK A01 T10541085  RH  079%=      5-min Rain = 0
KDO1 141509Z 16004KT M05/M09 A304 RMK A01 T10531085  RH  079%=      5-min Rain = 0
KDO1 141510Z 16006KT M05/M09 A304 RMK A01 T10531085  RH  078%=      5-min Rain = 0
KDO1 141511Z 17007KT M05/M09 A304 RMK A01 T10531087  RH  077%=      5-min Rain = 0
KDO1 141512Z 16007KT M05/M09 A304 RMK A01 T10531087  RH  077%=      5-min Rain = 0
KDO1 141513Z 16007KT M05/M09 A304 RMK A01 T10531087  RH  077%=      5-min Rain = 0
KDO1 141514Z 16007KT M05/M09 A304 RMK A01 T10531087  RH  077%=      5-min Rain = 0
KDO1 141515Z 17007KT M05/M09 A304 RMK A01 T10521089  RH  076%=      5-min Rain = 0
KDO1 141516Z 17007KT M05/M09 A304 RMK A01 T10521090  RH  075%=      5-min Rain = 0
KDO1 141517Z 18007KT M05/M09 A304 RMK A01 T10511088  RH  076%=      5-min Rain = 0
KDO1 141518Z 18007KT M05/M09 A304 RMK A01 T10501088  RH  075%=      5-min Rain = 0
KDO1 141519Z 16005KT M05/M09 A304 RMK A01 T10491087  RH  075%=      5-min Rain = 0
KDO1 141520Z 16009KT M05/M09 A304 RMK A01 T10481087  RH  074%=      5-min Rain = 0
KDO1 141521Z 17010KT M05/M09 A304 RMK A01 T10471091  RH  071%=      5-min Rain = 0
KDO1 141522Z 17011KT M05/M09 A304 RMK A01 T10471094  RH  070%=      5-min Rain = 0
KDO1 141523Z 17012KT M05/M10 A304 RMK A01 T10481095  RH  070%=      5-min Rain = 0
KDO1 141524Z 17010KT M05/M10 A304 RMK A01 T10491096  RH  070%=      5-min Rain = 0
KDO1 141525Z 17010KT M05/M10 A304 RMK A01 T10481095  RH  070%=      5-min Rain = 0
KDO1 141526Z 17009KT M05/M09 A304 RMK A01 T10471093  RH  070%=      5-min Rain = 0
KDO1 141527Z 17010KT M05/M10 A304 RMK A01 T10481095  RH  069%=      5-min Rain = 0
KDO1 141528Z 16010KT M05/M10 A304 RMK A01 T10491097  RH  069%=      5-min Rain = 0
KDO1 141529Z 17009KT M05/M10 A304 RMK A01 T10491097  RH  069%=      5-min Rain = 0
KDO1 141530Z 17009KT M05/M10 A304 RMK A01 T10491098  RH  069%=      5-min Rain = 0
KDO1 141531Z 18010KT M05/M10 A304 RMK A01 T10491096  RH  070%=      5-min Rain = 0
KDO1 141532Z 18009KT M05/M10 A304 RMK A01 T10481096  RH  070%=      5-min Rain = 0
KDO1 141533Z 18008KT M05/M09 A304 RMK A01 T10481094  RH  070%=      5-min Rain = 0
KDO1 141534Z 18008KT M05/M09 A304 RMK A01 T10481094  RH  070%=      5-min Rain = 0
KDO1 141535Z 16009KT M05/M09 A304 RMK A01 T10481093  RH  071%=      5-min Rain = 0
KDO1 141536Z 16009KT M05/M09 A304 RMK A01 T10471094  RH  069%=      5-min Rain = 0
KDO1 141537Z 17010KT M05/M10 A304 RMK A01 T10471095  RH  069%=      5-min Rain = 0
KDO1 141538Z 17010KT M05/M10 A3039 RMK A01 T10471095  RH  069%=      5-min Rain = 0
KDO1 141539Z 17011KT M05/M10 A304 RMK A01 T10471095  RH  069%=      5-min Rain = 0
KDO1 141540Z 17010KT M05/M10 A304 RMK A01 T10481095  RH  069%=      5-min Rain = 0
KDO1 141541Z 16008KT M05/M10 A304 RMK A01 T10481095  RH  070%=      5-min Rain = 0
KDO1 141542Z 16007KT M05/M09 A304 RMK A01 T10481094  RH  070%=      5-min Rain = 0
KDO1 141543Z 17007KT M05/M09 A304 RMK A01 T10471093  RH  070%=      5-min Rain = 0
KDO1 141544Z 18009KT M05/M09 A304 RMK A01 T10461092  RH  070%=      5-min Rain = 0
KDO1 141545Z 18008KT M05/M09 A304 RMK A01 T10461092  RH  070%=      5-min Rain = 0
KDO1 141546Z 18008KT M05/M09 A304 RMK A01 T10461092  RH  070%=      5-min Rain = 0
KDO1 141547Z 17009KT M05/M09 A304 RMK A01 T10461092  RH  070%=      5-min Rain = 0
KDO1 141548Z 17009KT M05/M09 A304 RMK A01 T10461094  RH  069%=      5-min Rain = 0
KDO1 141549Z 17009KT M05/M10 A304 RMK A01 T10461096  RH  068%=      5-min Rain = 0
KDO1 141550Z 17009KT M05/M10 A304 RMK A01 T10461096  RH  068%=      5-min Rain = 0
KDO1 141551Z 17007KT M05/M10 A304 RMK A01 T10461095  RH  068%=      5-min Rain = 0
KDO1 141552Z 17008KT M04/M09 A304 RMK A01 T10441092  RH  069%=      5-min Rain = 0
KDO1 141553Z 17011KT M04/M09 A3039 RMK A01 T10431093  RH  068%=      5-min Rain = 0
KDO1 141554Z 17009KT M04/M10 A3039 RMK A01 T10431095  RH  067%=      5-min Rain = 0
KDO1 141555Z 17010KT M04/M10 A3039 RMK A01 T10431095  RH  067%=      5-min Rain = 0
KDO1 141556Z 18009KT M04/M10 A3039 RMK A01 T10441097  RH  067%=      5-min Rain = 0
KDO1 141557Z 18009KT M04/M10 A3039 RMK A01 T10441095  RH  068%=      5-min Rain = 0
KDO1 141558Z 17009KT M04/M09 A3039 RMK A01 T10421093  RH  068%=      5-min Rain = 0
KDO1 141559Z 18009KT M04/M09 A304 RMK A01 T10411093  RH  067%=      5-min Rain = 0
KDO1 141600Z 17008KT M04/M09 A304 RMK A01 T10411093  RH  067%=      5-min Rain = 0
KDO1 141601Z 17009KT M04/M09 A304 RMK A01 T10411093  RH  067%=      5-min Rain = 0
KDO1 141602Z 17008KT M04/M09 A304 RMK A01 T10401092  RH  067%=      5-min Rain = 0
KDO1 141603Z 17008KT M04/M09 A304 RMK A01 T10401094  RH  066%=      5-min Rain = 0
KDO1 141604Z 18010KT M04/M09 A3039 RMK A01 T10401092  RH  067%=      5-min Rain = 0
KDO1 141605Z 18010KT M04/M09 A3039 RMK A01 T10401094  RH  066%=      5-min Rain = 0
KDO1 141606Z 18011KT M04/M10 A3039 RMK A01 T10411095  RH  066%=      5-min Rain = 0
KDO1 141607Z 18009KT M04/M10 A304 RMK A01 T10411095  RH  066%=      5-min Rain = 0
KDO1 141608Z 17008KT M04/M09 A304 RMK A01 T10411094  RH  067%=      5-min Rain = 0
KDO1 141609Z 17011KT M04/M09 A304 RMK A01 T10411094  RH  066%=      5-min Rain = 0
KDO1 141610Z 17011KT M04/M10 A304 RMK A01 T10411095  RH  066%=      5-min Rain = 0
KDO1 141611Z 17010KT M04/M10 A304 RMK A01 T10411096  RH  066%=      5-min Rain = 0
KDO1 141612Z 17011KT M04/M10 A304 RMK A01 T10411095  RH  066%=      5-min Rain = 0
KDO1 141613Z 17008KT M04/M10 A304 RMK A01 T10411096  RH  065%=      5-min Rain = 0
KDO1 141614Z 16008KT M04/M10 A304 RMK A01 T10411096  RH  066%=      5-min Rain = 0
KDO1 141615Z 18008KT M04/M10 A304 RMK A01 T10401095  RH  066%=      5-min Rain = 0
KDO1 141616Z 18008KT M04/M09 A304 RMK A01 T10391093  RH  066%=      5-min Rain = 0
KDO1 141617Z 18010KT M04/M09 A304 RMK A01 T10381091  RH  067%=      5-min Rain = 0
KDO1 141618Z 19009KT M04/M09 A3039 RMK A01 T10381092  RH  066%=      5-min Rain = 0
KDO1 141619Z 18011KT M04/M09 A3039 RMK A01 T10381091  RH  067%=      5-min Rain = 0
KDO1 141620Z 18009KT M04/M09 A3039 RMK A01 T10381093  RH  066%=      5-min Rain = 0
KDO1 141621Z 18009KT M04/M09 A3039 RMK A01 T10381091  RH  067%=      5-min Rain = 0
KDO1 141622Z 18009KT M04/M09 A3039 RMK A01 T10381091  RH  066%=      5-min Rain = 0
KDO1 141623Z 18010KT M04/M09 A3039 RMK A01 T10381092  RH  066%=      5-min Rain = 0
KDO1 141624Z 18010KT M04/M09 A3039 RMK A01 T10381091  RH  067%=      5-min Rain = 0
KDO1 141625Z 17009KT M04/M09 A3039 RMK A01 T10381092  RH  066%=      5-min Rain = 0
KDO1 141626Z 17008KT M04/M09 A3039 RMK A01 T10391093  RH  066%=      5-min Rain = 0
KDO1 141627Z 18008KT M04/M09 A3039 RMK A01 T10401094  RH  066%=      5-min Rain = 0
KDO1 141628Z 17007KT M04/M09 A3039 RMK A01 T10391091  RH  067%=      5-min Rain = 0
KDO1 141629Z 18010KT M04/M09 A3039 RMK A01 T10381089  RH  067%=      5-min Rain = 0
KDO1 141630Z 18009KT M04/M09 A3039 RMK A01 T10381091  RH  067%=      5-min Rain = 0
KDO1 141631Z 18007KT M04/M09 A304 RMK A01 T10381090  RH  067%=      5-min Rain = 0
KDO1 141632Z 18010KT M04/M09 A3039 RMK A01 T10371089  RH  067%=      5-min Rain = 0
KDO1 141633Z 18010KT M04/M09 A3039 RMK A01 T10371090  RH  067%=      5-min Rain = 0
KDO1 141634Z 18009KT M04/M09 A3039 RMK A01 T10381091  RH  067%=      5-min Rain = 0
KDO1 141635Z 17008KT M04/M09 A3039 RMK A01 T10381090  RH  067%=      5-min Rain = 0
KDO1 141636Z 17008KT M04/M09 A3039 RMK A01 T10361088  RH  067%=      5-min Rain = 0
KDO1 141637Z 18009KT M04/M09 A3039 RMK A01 T10361089  RH  067%=      5-min Rain = 0
KDO1 141638Z 17008KT M04/M09 A3039 RMK A01 T10351088  RH  067%=      5-min Rain = 0
KDO1 141639Z 18008KT M03/M09 A3039 RMK A01 T10341086  RH  067%=      5-min Rain = 0
KDO1 141640Z 18008KT M03/M09 A3039 RMK A01 T10331086  RH  067%=      5-min Rain = 0
KDO1 141641Z 18008KT M03/M09 A3039 RMK A01 T10331086  RH  067%=      5-min Rain = 0
KDO1 141642Z 18009KT M03/M09 A3039 RMK A01 T10331086  RH  067%=      5-min Rain = 0
KDO1 141643Z 18011KT M03/M09 A3039 RMK A01 T10321085  RH  067%=      5-min Rain = 0
KDO1 141644Z 18010KT M03/M09 A3039 RMK A01 T10321086  RH  066%=      5-min Rain = 0
KDO1 141645Z 18012KT M03/M09 A3039 RMK A01 T10321087  RH  066%=      5-min Rain = 0
KDO1 141646Z 19012KT M03/M09 A3039 RMK A01 T10331087  RH  066%=      5-min Rain = 0
KDO1 141647Z 18009KT M03/M09 A3039 RMK A01 T10341088  RH  066%=      5-min Rain = 0
KDO1 141648Z 18008KT M03/M09 A3039 RMK A01 T10331086  RH  067%=      5-min Rain = 0
KDO1 141649Z 18010KT M03/M09 A3039 RMK A01 T10321085  RH  067%=      5-min Rain = 0
KDO1 141650Z 18011KT M03/M08 A3039 RMK A01 T10311083  RH  067%=      5-min Rain = 0
KDO1 141651Z 19010KT M03/M09 A3039 RMK A01 T10311085  RH  066%=      5-min Rain = 0
KDO1 141652Z 19010KT M03/M09 A3039 RMK A01 T10311086  RH  066%=      5-min Rain = 0
KDO1 141653Z 18011KT M03/M09 A3039 RMK A01 T10321086  RH  066%=      5-min Rain = 0
KDO1 141654Z 18009KT M03/M09 A3039 RMK A01 T10321087  RH  066%=      5-min Rain = 0
KDO1 141655Z 19009KT M03/M08 A3039 RMK A01 T10311084  RH  067%=      5-min Rain = 0
KDO1 141656Z 18011KT M03/M08 A3039 RMK A01 T10291081  RH  067%=      5-min Rain = 0
KDO1 141657Z 18010KT M03/M08 A3039 RMK A01 T10281081  RH  067%=      5-min Rain = 0
KDO1 141658Z 19009KT M03/M08 A3039 RMK A01 T10281081  RH  067%=      5-min Rain = 0
KDO1 141659Z 18010KT M03/M08 A3039 RMK A01 T10291081  RH  067%=      5-min Rain = 0
KDO1 141700Z 19010KT M03/M08 A3039 RMK A01 T10291080  RH  068%=      5-min Rain = 0
KDO1 141701Z 19011KT M03/M08 A3039 RMK A01 T10271078  RH  068%=      5-min Rain = 0
KDO1 141702Z 19013KT M03/M08 A3039 RMK A01 T10281080  RH  067%=      5-min Rain = 0
KDO1 141703Z 19012KT M03/M08 A3039 RMK A01 T10291081  RH  067%=      5-min Rain = 0
KDO1 141704Z 20011KT M03/M08 A3039 RMK A01 T10291081  RH  067%=      5-min Rain = 0
KDO1 141705Z 18012KT M03/M08 A3039 RMK A01 T10291082  RH  067%=      5-min Rain = 0
KDO1 141706Z 18011KT M03/M08 A3038 RMK A01 T10301081  RH  068%=      5-min Rain = 0
KDO1 141707Z 17012KT M03/M08 A3038 RMK A01 T10291081  RH  068%=      5-min Rain = 0
KDO1 141708Z 17014KT M03/M08 A3038 RMK A01 T10291082  RH  067%=      5-min Rain = 0
KDO1 141709Z 18011KT M03/M08 A3038 RMK A01 T10291083  RH  067%=      5-min Rain = 0
KDO1 141710Z 18011KT M03/M08 A3038 RMK A01 T10301082  RH  067%=      5-min Rain = 0
KDO1 141711Z 18013KT M03/M08 A3038 RMK A01 T10291081  RH  067%=      5-min Rain = 0
KDO1 141712Z 18013KT M03/M08 A3038 RMK A01 T10291083  RH  067%=      5-min Rain = 0
KDO1 141713Z 19013KT M03/M08 A3038 RMK A01 T10291082  RH  067%=      5-min Rain = 0
KDO1 141714Z 19011KT M03/M08 A3038 RMK A01 T10291082  RH  067%=      5-min Rain = 0
KDO1 141715Z 17011KT M03/M08 A3038 RMK A01 T10291080  RH  068%=      5-min Rain = 0
KDO1 141716Z 16012KT M03/M08 A3038 RMK A01 T10271080  RH  067%=      5-min Rain = 0
KDO1 141717Z 17013KT M03/M08 A3038 RMK A01 T10271081  RH  067%=      5-min Rain = 0
KDO1 141718Z 17013KT M03/M08 A3038 RMK A01 T10271081  RH  067%=      5-min Rain = 0
KDO1 141719Z 18011KT M03/M08 A3038 RMK A01 T10271079  RH  067%=      5-min Rain = 0
KDO1 141720Z 18011KT M03/M08 A3038 RMK A01 T10261077  RH  068%=      5-min Rain = 0
KDO1 141721Z 16012KT M03/M08 A3038 RMK A01 T10251075  RH  068%=      5-min Rain = 0
KDO1 141722Z 16013KT M03/M08 A3037 RMK A01 T10251076  RH  068%=      5-min Rain = 0
KDO1 141723Z 17012KT M03/M08 A3037 RMK A01 T10261076  RH  069%=      5-min Rain = 0
KDO1 141724Z 16013KT M03/M08 A3037 RMK A01 T10271076  RH  069%=      5-min Rain = 0
KDO1 141725Z 16012KT M03/M08 A3037 RMK A01 T10281076  RH  069%=      5-min Rain = 0
KDO1 141726Z 16011KT M03/M08 A3037 RMK A01 T10281075  RH  070%=      5-min Rain = 0
KDO1 141727Z 17011KT M03/M07 A3037 RMK A01 T10271072  RH  071%=      5-min Rain = 0
KDO1 141728Z 16012KT M03/M07 A3037 RMK A01 T10261071  RH  071%=      5-min Rain = 0
KDO1 141729Z 16014KT M03/M07 A3037 RMK A01 T10261072  RH  070%=      5-min Rain = 0
KDO1 141730Z 17014KT M03/M07 A3037 RMK A01 T10261072  RH  070%=      5-min Rain = 0
KDO1 141731Z 16013KT M03/M07 A3037 RMK A01 T10261073  RH  070%=      5-min Rain = 0
KDO1 141732Z 17010KT M03/M07 A3037 RMK A01 T10271073  RH  070%=      5-min Rain = 0
KDO1 141733Z 17012KT M03/M07 A3037 RMK A01 T10271073  RH  071%=      5-min Rain = 0
KDO1 141734Z 17012KT M03/M07 A3036 RMK A01 T10261074  RH  070%=      5-min Rain = 0
KDO1 141735Z 16011KT M03/M07 A3037 RMK A01 T10261074  RH  070%=      5-min Rain = 0
KDO1 141736Z 16012KT M03/M07 A3037 RMK A01 T10251073  RH  069%=      5-min Rain = 0
KDO1 141737Z 17010KT M03/M07 A3036 RMK A01 T10251073  RH  069%=      5-min Rain = 0
KDO1 141738Z 17013KT M02/M07 A3036 RMK A01 T10241073  RH  069%=      5-min Rain = 0
KDO1 141739Z 16011KT M02/M07 A3036 RMK A01 T10231072  RH  069%=      5-min Rain = 0
KDO1 141740Z 17010G15KT M02/M07 A3036 RMK A01 T10231070  RH  070%=      5-min Rain = 0
KDO1 141741Z 17011KT M02/M07 A3036 RMK A01 T10221070  RH  070%=      5-min Rain = 0
KDO1 141742Z 17010KT M02/M07 A3036 RMK A01 T10211071  RH  069%=      5-min Rain = 0
KDO1 141743Z 18010KT M02/M07 A3036 RMK A01 T10211070  RH  069%=      5-min Rain = 0
KDO1 141744Z 17012KT M02/M07 A3036 RMK A01 T10211071  RH  069%=      5-min Rain = 0
KDO1 141745Z 17010KT M02/M07 A3036 RMK A01 T10211069  RH  070%=      5-min Rain = 0
KDO1 141746Z 17012KT M02/M07 A3036 RMK A01 T10201069  RH  069%=      5-min Rain = 0
KDO1 141747Z 17013KT M02/M07 A3036 RMK A01 T10201070  RH  069%=      5-min Rain = 0
KDO1 141748Z 17013KT M02/M07 A3036 RMK A01 T10211071  RH  069%=      5-min Rain = 0
KDO1 141749Z 16014KT M02/M07 A3036 RMK A01 T10211070  RH  069%=      5-min Rain = 0
KDO1 141750Z 17014KT M02/M07 A3036 RMK A01 T10201070  RH  069%=      5-min Rain = 0
KDO1 141751Z 17014KT M02/M07 A3036 RMK A01 T10191069  RH  069%=      5-min Rain = 0
KDO1 141752Z 17014KT M02/M07 A3036 RMK A01 T10191070  RH  068%=      5-min Rain = 0
KDO1 141753Z 17013KT M02/M07 A3035 RMK A01 T10201072  RH  067%=      5-min Rain = 0
KDO1 141754Z 17011KT M02/M07 A3035 RMK A01 T10191070  RH  068%=      5-min Rain = 0
KDO1 141755Z 18011KT M02/M07 A3035 RMK A01 T10171068  RH  068%=      5-min Rain = 0
KDO1 141756Z 16012KT M02/M07 A3035 RMK A01 T10161068  RH  068%=      5-min Rain = 0
KDO1 141757Z 18011KT M02/M07 A3035 RMK A01 T10161068  RH  068%=      5-min Rain = 0
KDO1 141758Z 17012KT M02/M07 A3035 RMK A01 T10151066  RH  068%=      5-min Rain = 0
KDO1 141759Z 16014KT M02/M07 A3035 RMK A01 T10151068  RH  067%=      5-min Rain = 0
KDO1 141800Z 15012KT M02/M07 A3035 RMK A01 T10161069  RH  067%=      5-min Rain = 0
KDO1 141801Z 15012KT M02/M07 A3035 RMK A01 T10161070  RH  067%=      5-min Rain = 0
KDO1 141802Z 16013KT M02/M07 A3035 RMK A01 T10171070  RH  067%=      5-min Rain = 0
KDO1 141803Z 18013KT M02/M07 A3035 RMK A01 T10161067  RH  068%=      5-min Rain = 0
KDO1 141804Z 18015KT M02/M07 A3035 RMK A01 T10151066  RH  068%=      5-min Rain = 0
KDO1 141805Z 17013KT M02/M07 A3035 RMK A01 T10151067  RH  068%=      5-min Rain = 0
KDO1 141806Z 17013KT M02/M07 A3035 RMK A01 T10161068  RH  068%=      5-min Rain = 0
KDO1 141807Z 17012KT M02/M07 A3035 RMK A01 T10161068  RH  068%=      5-min Rain = 0
KDO1 141808Z 16012KT M02/M07 A3034 RMK A01 T10161065  RH  069%=      5-min Rain = 0
KDO1 141809Z 16013KT M01/M06 A3034 RMK A01 T10131063  RH  069%=      5-min Rain = 0
KDO1 141810Z 16011KT M01/M07 A3034 RMK A01 T10131066  RH  067%=      5-min Rain = 0
KDO1 141811Z 17013KT M01/M07 A3034 RMK A01 T10121065  RH  068%=      5-min Rain = 0
KDO1 141812Z 17012KT M01/M06 A3034 RMK A01 T10121062  RH  069%=      5-min Rain = 0
KDO1 141813Z 17013KT M01/M06 A3034 RMK A01 T10121062  RH  069%=      5-min Rain = 0
KDO1 141814Z 18014KT M01/M06 A3034 RMK A01 T10131064  RH  068%=      5-min Rain = 0
KDO1 141815Z 17012KT M01/M07 A3034 RMK A01 T10141065  RH  068%=      5-min Rain = 0
KDO1 141816Z 16012KT M01/M07 A3034 RMK A01 T10141066  RH  067%=      5-min Rain = 0
KDO1 141817Z 16013KT M02/M07 A3034 RMK A01 T10151069  RH  067%=      5-min Rain = 0
KDO1 141818Z 16013KT M02/M07 A3034 RMK A01 T10161068  RH  068%=      5-min Rain = 0
KDO1 141819Z 17013KT M02/M07 A3034 RMK A01 T10161065  RH  069%=      5-min Rain = 0
KDO1 141820Z 16014KT M02/M06 A3034 RMK A01 T10161064  RH  069%=      5-min Rain = 0
KDO1 141821Z 16011KT M02/M07 A3033 RMK A01 T10151066  RH  069%=      5-min Rain = 0
KDO1 141822Z 16011KT M02/M06 A3033 RMK A01 T10151062  RH  070%=      5-min Rain = 0
KDO1 141823Z 16010KT M01/M06 A3033 RMK A01 T10131061  RH  069%=      5-min Rain = 0
KDO1 141824Z 17012KT M01/M06 A3033 RMK A01 T10121064  RH  068%=      5-min Rain = 0
KDO1 141825Z 16014KT M01/M06 A3033 RMK A01 T10131064  RH  068%=      5-min Rain = 0
KDO1 141826Z 17013KT M01/M06 A3033 RMK A01 T10131064  RH  068%=      5-min Rain = 0
KDO1 141827Z 18011KT M01/M06 A3033 RMK A01 T10141064  RH  069%=      5-min Rain = 0
KDO1 141828Z 16010KT M01/M06 A3033 RMK A01 T10131061  RH  070%=      5-min Rain = 0
KDO1 141829Z 16011KT M01/M06 A3033 RMK A01 T10111062  RH  068%=      5-min Rain = 0
KDO1 141830Z 16010KT M01/M06 A3033 RMK A01 T10111062  RH  068%=      5-min Rain = 0
KDO1 141831Z 17011KT M01/M06 A3033 RMK A01 T10101059  RH  069%=      5-min Rain = 0
KDO1 141832Z 17015KT M01/M06 A3033 RMK A01 T10091059  RH  069%=      5-min Rain = 0
KDO1 141833Z 18012KT M01/M06 A3033 RMK A01 T10091059  RH  069%=      5-min Rain = 0
KDO1 141834Z 16011KT M01/M06 A3033 RMK A01 T10091057  RH  070%=      5-min Rain = 0
KDO1 141835Z 15011KT M01/M06 A3032 RMK A01 T10091059  RH  069%=      5-min Rain = 0
KDO1 141836Z 16012KT M01/M06 A3032 RMK A01 T10101059  RH  069%=      5-min Rain = 0
KDO1 141837Z 17011KT M01/M06 A3032 RMK A01 T10101058  RH  069%=      5-min Rain = 0
KDO1 141838Z 17012KT M01/M06 A3032 RMK A01 T10091057  RH  070%=      5-min Rain = 0
KDO1 141839Z 17013KT M01/M06 A3032 RMK A01 T10091058  RH  069%=      5-min Rain = 0
KDO1 141840Z 17012KT M01/M06 A3032 RMK A01 T10101058  RH  070%=      5-min Rain = 0
KDO1 141841Z 18014KT M01/M06 A3032 RMK A01 T10091056  RH  070%=      5-min Rain = 0
KDO1 141842Z 18013KT M01/M06 A3032 RMK A01 T10081056  RH  070%=      5-min Rain = 0
KDO1 141843Z 17012KT M01/M06 A3032 RMK A01 T10081055  RH  070%=      5-min Rain = 0
KDO1 141844Z 18009KT M01/M06 A3032 RMK A01 T10071055  RH  070%=      5-min Rain = 0
KDO1 141845Z 18013KT M01/M05 A3032 RMK A01 T10061053  RH  070%=      5-min Rain = 0
KDO1 141846Z 17012KT M01/M05 A3032 RMK A01 T10061054  RH  070%=      5-min Rain = 0
KDO1 141847Z 17011KT M01/M05 A3032 RMK A01 T10061054  RH  070%=      5-min Rain = 0
KDO1 141848Z 17012KT M01/M05 A3032 RMK A01 T10061054  RH  070%=      5-min Rain = 0
KDO1 141849Z 18015KT M01/M05 A3032 RMK A01 T10051053  RH  070%=      5-min Rain = 0
KDO1 141850Z 18016KT M01/M06 A3031 RMK A01 T10061055  RH  070%=      5-min Rain = 0
KDO1 141851Z 19015KT M01/M06 A3031 RMK A01 T10081056  RH  070%=      5-min Rain = 0
KDO1 141852Z 19014KT M01/M06 A3031 RMK A01 T10081055  RH  070%=      5-min Rain = 0
KDO1 141853Z 18013KT M01/M05 A3031 RMK A01 T10081054  RH  071%=      5-min Rain = 0
KDO1 141854Z 18013KT M01/M05 A3031 RMK A01 T10081053  RH  071%=      5-min Rain = 0
KDO1 141855Z 18013KT M01/M05 A3031 RMK A01 T10071052  RH  071%=      5-min Rain = 0
KDO1 141856Z 18012KT M01/M05 A3031 RMK A01 T10071053  RH  071%=      5-min Rain = 0
KDO1 141857Z 18011KT M01/M05 A3031 RMK A01 T10071053  RH  071%=      5-min Rain = 0
KDO1 141858Z 19014KT M00/M05 A3031 RMK A01 T10031047  RH  072%=      5-min Rain = 0
KDO1 141859Z 19014KT M00/M05 A3031 RMK A01 T10021048  RH  071%=      5-min Rain = 0
KDO1 141900Z 18017KT M00/M05 A303 RMK A01 T10021048  RH  071%=      5-min Rain = 0
KDO1 141901Z 19016KT M00/M05 A303 RMK A01 T10021048  RH  071%=      5-min Rain = 0
KDO1 141902Z 19015KT M00/M05 A303 RMK A01 T10031050  RH  071%=      5-min Rain = 0
KDO1 141903Z 18012KT M00/M05 A303 RMK A01 T10031048  RH  072%=      5-min Rain = 0
KDO1 141904Z 18013KT 00/04 A303 RMK A01 T00-00-44  RH  073%=      5-min Rain = 0
KDO1 141905Z 19013KT 00/M04 A303 RMK A01 T00011044  RH  072%=      5-min Rain = 0
KDO1 141906Z 20013KT 00/M04 A303 RMK A01 T00031044  RH  071%=      5-min Rain = 0
KDO1 141907Z 19012KT 00/M04 A303 RMK A01 T00031044  RH  071%=      5-min Rain = 0
KDO1 141908Z 18016KT 00/M05 A303 RMK A01 T00031045  RH  070%=      5-min Rain = 0
KDO1 141909Z 19016KT 01/M04 A303 RMK A01 T00051043  RH  070%=      5-min Rain = 0
KDO1 141910Z 19012KT 01/M04 A303 RMK A01 T00061043  RH  070%=      5-min Rain = 0
KDO1 141911Z 20013KT 01/M04 A303 RMK A01 T00071043  RH  069%=      5-min Rain = 0
KDO1 141912Z 20012KT 01/M04 A3029 RMK A01 T00071043  RH  069%=      5-min Rain = 0
KDO1 141913Z 18012G18KT 01/M04 A3029 RMK A01 T00091039  RH  071%=      5-min Rain = 0
KDO1 141914Z 19015G20KT 01/M04 A3029 RMK A01 T00091042  RH  068%=      5-min Rain = 0
KDO1 141915Z 20015KT 01/M04 A3029 RMK A01 T00071044  RH  068%=      5-min Rain = 0
KDO1 141916Z 19017KT 01/M04 A3029 RMK A01 T00071042  RH  069%=      5-min Rain = 0
KDO1 141917Z 19013KT 01/M04 A3029 RMK A01 T00091039  RH  070%=      5-min Rain = 0
KDO1 141918Z 20013KT 01/M04 A3029 RMK A01 T00111040  RH  068%=      5-min Rain = 0
KDO1 141919Z 19010KT 01/M04 A3029 RMK A01 T00101042  RH  068%=      5-min Rain = 0
KDO1 141920Z 18013KT 01/M04 A3029 RMK A01 T00111041  RH  068%=      5-min Rain = 0
KDO1 141921Z 18016KT 01/M04 A3029 RMK A01 T00121040  RH  068%=      5-min Rain = 0
KDO1 141922Z 18015KT 01/M04 A3029 RMK A01 T00131041  RH  068%=      5-min Rain = 0
KDO1 141923Z 19013KT 01/M04 A3029 RMK A01 T00141039  RH  068%=      5-min Rain = 0
KDO1 141924Z 19013KT 02/M04 A3029 RMK A01 T00161038  RH  068%=      5-min Rain = 0
KDO1 141925Z 17012KT 02/M04 A3029 RMK A01 T00161040  RH  066%=      5-min Rain = 0
KDO1 141926Z 18013G19KT 02/M04 A3028 RMK A01 T00151040  RH  067%=      5-min Rain = 0
KDO1 141927Z 18014G19KT 02/M04 A3028 RMK A01 T00171037  RH  068%=      5-min Rain = 0
KDO1 141928Z 17016KT 02/M04 A3028 RMK A01 T00181038  RH  066%=      5-min Rain = 0
KDO1 141929Z 19014KT 02/M04 A3028 RMK A01 T00151043  RH  065%=      5-min Rain = 0
KDO1 141930Z 19013KT 01/M04 A3028 RMK A01 T00141041  RH  067%=      5-min Rain = 0
KDO1 141931Z 19015KT 02/M04 A3028 RMK A01 T00151039  RH  067%=      5-min Rain = 0
KDO1 141932Z 18013KT 02/M04 A3028 RMK A01 T00171036  RH  068%=      5-min Rain = 0
KDO1 141933Z 17014KT 02/M04 A3028 RMK A01 T00191036  RH  067%=      5-min Rain = 0
KDO1 141934Z 18014KT 02/M04 A3028 RMK A01 T00171041  RH  065%=      5-min Rain = 0
KDO1 141935Z 17014KT 01/M04 A3027 RMK A01 T00131043  RH  066%=      5-min Rain = 0
KDO1 141936Z 17013KT 02/M04 A3027 RMK A01 T00151039  RH  067%=      5-min Rain = 0
KDO1 141937Z 18012KT 02/M04 A3027 RMK A01 T00171038  RH  067%=      5-min Rain = 0
KDO1 141938Z 17015KT 02/M04 A3027 RMK A01 T00171040  RH  066%=      5-min Rain = 0
KDO1 141939Z 17010KT 01/M04 A3027 RMK A01 T00141043  RH  066%=      5-min Rain = 0
KDO1 141940Z 18012G17KT 01/M04 A3027 RMK A01 T00131042  RH  067%=      5-min Rain = 0
KDO1 141941Z 20011G16KT 01/M04 A3027 RMK A01 T00131040  RH  068%=      5-min Rain = 0
KDO1 141942Z 18012KT 02/M04 A3027 RMK A01 T00151037  RH  068%=      5-min Rain = 0
KDO1 141943Z 20013KT 02/M04 A3027 RMK A01 T00181035  RH  068%=      5-min Rain = 0
KDO1 141944Z 20013KT 02/M04 A3027 RMK A01 T00201035  RH  067%=      5-min Rain = 0
KDO1 141945Z 17014KT 02/M03 A3027 RMK A01 T00221032  RH  068%=      5-min Rain = 0
KDO1 141946Z 17012KT 02/M03 A3027 RMK A01 T00241033  RH  066%=      5-min Rain = 0
KDO1 141947Z 18015KT 02/M04 A3027 RMK A01 T00221036  RH  066%=      5-min Rain = 0
KDO1 141948Z 19014KT 02/M04 A3026 RMK A01 T00181039  RH  066%=      5-min Rain = 0
KDO1 141949Z 19014KT 02/M04 A3026 RMK A01 T00161040  RH  066%=      5-min Rain = 0
KDO1 141950Z 18013KT 02/M04 A3026 RMK A01 T00151039  RH  067%=      5-min Rain = 0
KDO1 141951Z 18012KT 01/M04 A3026 RMK A01 T00141038  RH  068%=      5-min Rain = 0
KDO1 141952Z 18014KT 02/M04 A3026 RMK A01 T00151037  RH  068%=      5-min Rain = 0
KDO1 141953Z 19013G18KT 02/M04 A3026 RMK A01 T00161036  RH  069%=      5-min Rain = 0
KDO1 141954Z 17014KT 02/M04 A3026 RMK A01 T00171036  RH  068%=      5-min Rain = 0
KDO1 141955Z 19015KT 02/M04 A3026 RMK A01 T00171036  RH  068%=      5-min Rain = 0
KDO1 141956Z 19015KT 02/M04 A3026 RMK A01 T00171036  RH  068%=      5-min Rain = 0
KDO1 141957Z 19016KT 02/M04 A3026 RMK A01 T00161037  RH  068%=      5-min Rain = 0
KDO1 141958Z 20015KT 02/M04 A3026 RMK A01 T00151037  RH  068%=      5-min Rain = 0
KDO1 141959Z 21015KT 01/M04 A3026 RMK A01 T00141038  RH  068%=      5-min Rain = 0
KDO1 142000Z 20014KT 01/M04 A3026 RMK A01 T00141037  RH  069%=      5-min Rain = 0
KDO1 142001Z 18012G17KT 01/M04 A3026 RMK A01 T00141036  RH  070%=      5-min Rain = 0
KDO1 142002Z 18017KT 02/M04 A3026 RMK A01 T00151035  RH  069%=      5-min Rain = 0
KDO1 142003Z 19015KT 01/M04 A3026 RMK A01 T00141036  RH  069%=      5-min Rain = 0
KDO1 142004Z 19014KT 01/M04 A3026 RMK A01 T00141035  RH  070%=      5-min Rain = 0
KDO1 142005Z 20015KT 02/M03 A3026 RMK A01 T00161034  RH  070%=      5-min Rain = 0
KDO1 142006Z 18015KT 02/M03 A3026 RMK A01 T00161034  RH  069%=      5-min Rain = 0
KDO1 142007Z 18014KT 02/M04 A3026 RMK A01 T00161037  RH  068%=      5-min Rain = 0
KDO1 142008Z 19011KT 02/M04 A3026 RMK A01 T00151039  RH  068%=      5-min Rain = 0
KDO1 142009Z 18016G21KT 02/M04 A3026 RMK A01 T00151038  RH  068%=      5-min Rain = 0
KDO1 142010Z 18017KT 02/M04 A3026 RMK A01 T00161036  RH  068%=      5-min Rain = 0
KDO1 142011Z 18009KT 02/M04 A3026 RMK A01 T00161037  RH  068%=      5-min Rain = 0
KDO1 142012Z 17013KT 02/M03 A3026 RMK A01 T00201031  RH  069%=      5-min Rain = 0
KDO1 142013Z 18015KT 02/M03 A3026 RMK A01 T00231031  RH  067%=      5-min Rain = 0
KDO1 142014Z 17013G18KT 03/M03 A3025 RMK A01 T00251031  RH  067%=      5-min Rain = 0
KDO1 142015Z 18015KT 03/M03 A3026 RMK A01 T00251032  RH  066%=      5-min Rain = 0
KDO1 142016Z 19015KT 02/M03 A3025 RMK A01 T00231033  RH  066%=      5-min Rain = 0
KDO1 142017Z 19016KT 02/M03 A3025 RMK A01 T00241030  RH  067%=      5-min Rain = 0
KDO1 142018Z 19017KT 02/M03 A3025 RMK A01 T00241033  RH  066%=      5-min Rain = 0
KDO1 142019Z 18016G21KT 02/M03 A3025 RMK A01 T00241033  RH  066%=      5-min Rain = 0
KDO1 142020Z 19017KT 02/M03 A3025 RMK A01 T00231034  RH  066%=      5-min Rain = 0
KDO1 142021Z 19012G17KT 02/M03 A3025 RMK A01 T00211034  RH  067%=      5-min Rain = 0
KDO1 142022Z 19017KT 02/M03 A3025 RMK A01 T00201033  RH  068%=      5-min Rain = 0
KDO1 142023Z 19016KT 02/M03 A3025 RMK A01 T00201033  RH  068%=      5-min Rain = 0
KDO1 142024Z 19016KT 02/M03 A3025 RMK A01 T00201033  RH  068%=      5-min Rain = 0
KDO1 142025Z 18018KT 02/M03 A3025 RMK A01 T00191033  RH  068%=      5-min Rain = 0
KDO1 142026Z 18017KT 02/M03 A3025 RMK A01 T00181033  RH  069%=      5-min Rain = 0
KDO1 142027Z 18018KT 02/M03 A3025 RMK A01 T00161034  RH  069%=      5-min Rain = 0
KDO1 142028Z 19018KT 02/M03 A3025 RMK A01 T00161033  RH  070%=      5-min Rain = 0
KDO1 142029Z 20018KT 02/M03 A3025 RMK A01 T00171032  RH  070%=      5-min Rain = 0
KDO1 142030Z 20016KT 02/M03 A3025 RMK A01 T00171034  RH  069%=      5-min Rain = 0
KDO1 142031Z 19014KT 02/M04 A3025 RMK A01 T00161035  RH  069%=      5-min Rain = 0
KDO1 142032Z 20014KT 02/M03 A3025 RMK A01 T00171032  RH  070%=      5-min Rain = 0
KDO1 142033Z 20012KT 02/M03 A3024 RMK A01 T00201029  RH  070%=      5-min Rain = 0
KDO1 142034Z 20016KT 02/M03 A3024 RMK A01 T00221028  RH  070%=      5-min Rain = 0
KDO1 142035Z 20016KT 02/M03 A3024 RMK A01 T00221031  RH  068%=      5-min Rain = 0
KDO1 142036Z 18012KT 02/M03 A3024 RMK A01 T00211031  RH  068%=      5-min Rain = 0
KDO1 142037Z 18013KT 02/M03 A3024 RMK A01 T00211030  RH  069%=      5-min Rain = 0
KDO1 142038Z 18015KT 02/M03 A3024 RMK A01 T00211029  RH  069%=      5-min Rain = 0
KDO1 142039Z 18016G21KT 02/M03 A3024 RMK A01 T00211030  RH  069%=      5-min Rain = 0
KDO1 142040Z 18015KT 02/M03 A3024 RMK A01 T00211030  RH  069%=      5-min Rain = 0
KDO1 142041Z 19013G18KT 02/M03 A3024 RMK A01 T00201030  RH  069%=      5-min Rain = 0
KDO1 142042Z 18012G17KT 02/M03 A3024 RMK A01 T00211029  RH  069%=      5-min Rain = 0
KDO1 142043Z 17015KT 02/M03 A3024 RMK A01 T00231029  RH  069%=      5-min Rain = 0
KDO1 142044Z 18012KT 02/M03 A3024 RMK A01 T00221032  RH  068%=      5-min Rain = 0
KDO1 142045Z 19014KT 02/M03 A3024 RMK A01 T00211031  RH  068%=      5-min Rain = 0
KDO1 142046Z 20016KT 02/M03 A3024 RMK A01 T00231028  RH  069%=      5-min Rain = 0
KDO1 142047Z 19015KT 02/M03 A3024 RMK A01 T00231031  RH  068%=      5-min Rain = 0
KDO1 142048Z 17014KT 02/M03 A3024 RMK A01 T00211031  RH  068%=      5-min Rain = 0
KDO1 142049Z 17013KT 02/M03 A3023 RMK A01 T00201031  RH  069%=      5-min Rain = 0
KDO1 142050Z 20013KT 02/M03 A3023 RMK A01 T00211028  RH  070%=      5-min Rain = 0
KDO1 142051Z 19012KT 02/M03 A3023 RMK A01 T00231026  RH  070%=      5-min Rain = 0
KDO1 142052Z 19016KT 03/M02 A3023 RMK A01 T00251024  RH  070%=      5-min Rain = 0
KDO1 142053Z 18017KT 03/M03 A3023 RMK A01 T00251027  RH  069%=      5-min Rain = 0
KDO1 142054Z 19015KT 02/M03 A3023 RMK A01 T00241026  RH  069%=      5-min Rain = 0
KDO1 142055Z 20016KT 02/M03 A3023 RMK A01 T00241026  RH  069%=      5-min Rain = 0
KDO1 142056Z 20016KT 02/M03 A3023 RMK A01 T00241027  RH  069%=      5-min Rain = 0
KDO1 142057Z 19018KT 02/M03 A3023 RMK A01 T00241026  RH  070%=      5-min Rain = 0
KDO1 142058Z 17017G22KT 02/M03 A3023 RMK A01 T00241026  RH  070%=      5-min Rain = 0
KDO1 142059Z 19015KT 02/M03 A3023 RMK A01 T00231027  RH  070%=      5-min Rain = 0
KDO1 142100Z 21015KT 02/M02 A3023 RMK A01 T00241024  RH  070%=      5-min Rain = 0
KDO1 142101Z 20017KT 03/M02 A3023 RMK A01 T00261023  RH  070%=      5-min Rain = 0
KDO1 142102Z 20017KT 03/M03 A3023 RMK A01 T00261025  RH  069%=      5-min Rain = 0
KDO1 142103Z 19014KT 03/M03 A3023 RMK A01 T00251026  RH  069%=      5-min Rain = 0
KDO1 142104Z 20014KT 03/M03 A3023 RMK A01 T00251025  RH  069%=      5-min Rain = 0
KDO1 142105Z 20014KT 03/M02 A3023 RMK A01 T00261023  RH  070%=      5-min Rain = 0
KDO1 142106Z 19015KT 03/M02 A3023 RMK A01 T00281022  RH  069%=      5-min Rain = 0
KDO1 142107Z 18014KT 03/M02 A3023 RMK A01 T00301023  RH  068%=      5-min Rain = 0
KDO1 142108Z 19016KT 03/M02 A3023 RMK A01 T00301024  RH  068%=      5-min Rain = 0
KDO1 142109Z 19015KT 03/M03 A3023 RMK A01 T00301025  RH  067%=      5-min Rain = 0
KDO1 142110Z 19014KT 03/M03 A3023 RMK A01 T00301025  RH  067%=      5-min Rain = 0
KDO1 142111Z 19015KT 03/M03 A3023 RMK A01 T00291027  RH  067%=      5-min Rain = 0
KDO1 142112Z 20013KT 03/M03 A3022 RMK A01 T00281027  RH  067%=      5-min Rain = 0
KDO1 142113Z 20012KT 03/M03 A3022 RMK A01 T00281027  RH  067%=      5-min Rain = 0
KDO1 142114Z 20012KT 03/M02 A3022 RMK A01 T00311022  RH  068%=      5-min Rain = 0
KDO1 142115Z 18011KT 03/M02 A3022 RMK A01 T00341021  RH  067%=      5-min Rain = 0
KDO1 142116Z 17012KT 04/M02 A3022 RMK A01 T00371021  RH  066%=      5-min Rain = 0
KDO1 142117Z 19014KT 04/M02 A3022 RMK A01 T00391021  RH  065%=      5-min Rain = 0
KDO1 142118Z 19016KT 04/M02 A3022 RMK A01 T00391023  RH  064%=      5-min Rain = 0
KDO1 142119Z 19016KT 04/M02 A3022 RMK A01 T00381024  RH  064%=      5-min Rain = 0
KDO1 142120Z 19012KT 04/M03 A3022 RMK A01 T00361026  RH  064%=      5-min Rain = 0
KDO1 142121Z 18012KT 04/M02 A3022 RMK A01 T00351024  RH  065%=      5-min Rain = 0
KDO1 142122Z 17011KT 04/M02 A3021 RMK A01 T00371024  RH  065%=      5-min Rain = 0
KDO1 142123Z 18012KT 04/M03 A3021 RMK A01 T00371026  RH  064%=      5-min Rain = 0
KDO1 142124Z 19013KT 04/M03 A3021 RMK A01 T00371025  RH  064%=      5-min Rain = 0
KDO1 142125Z 18014KT 04/M03 A3021 RMK A01 T00371025  RH  064%=      5-min Rain = 0
KDO1 142126Z 19014KT 04/M03 A3021 RMK A01 T00371025  RH  064%=      5-min Rain = 0
KDO1 142127Z 18014KT 04/M02 A3021 RMK A01 T00381024  RH  064%=      5-min Rain = 0
KDO1 142128Z 18013KT 04/M02 A3021 RMK A01 T00381024  RH  064%=      5-min Rain = 0
KDO1 142129Z 19015KT 04/M02 A3021 RMK A01 T00391024  RH  064%=      5-min Rain = 0
KDO1 142130Z 20013KT 04/M02 A3021 RMK A01 T00401024  RH  063%=      5-min Rain = 0
KDO1 142131Z 20011KT 04/M03 A3021 RMK A01 T00381026  RH  063%=      5-min Rain = 0
KDO1 142132Z 19015KT 04/M02 A3021 RMK A01 T00391023  RH  064%=      5-min Rain = 0
KDO1 142133Z 18011KT 04/M02 A3021 RMK A01 T00411021  RH  064%=      5-min Rain = 0
KDO1 142134Z 18012KT 04/M02 A3021 RMK A01 T00431021  RH  063%=      5-min Rain = 0
KDO1 142135Z 17013KT 04/M03 A3021 RMK A01 T00421025  RH  062%=      5-min Rain = 0
KDO1 142136Z 18011KT 04/M03 A3021 RMK A01 T00401027  RH  061%=      5-min Rain = 0
KDO1 142137Z 20012KT 04/M03 A3021 RMK A01 T00401025  RH  063%=      5-min Rain = 0
KDO1 142138Z 19010KT 04/M03 A302 RMK A01 T00401025  RH  063%=      5-min Rain = 0
KDO1 142139Z 18012KT 04/M02 A302 RMK A01 T00421022  RH  063%=      5-min Rain = 0
KDO1 142140Z 19011KT 04/M02 A302 RMK A01 T00441021  RH  063%=      5-min Rain = 0
KDO1 142141Z 18009KT 05/M02 A302 RMK A01 T00451020  RH  063%=      5-min Rain = 0
KDO1 142142Z 19011KT 05/M02 A302 RMK A01 T00461022  RH  061%=      5-min Rain = 0
KDO1 142143Z 20012KT 05/M02 A302 RMK A01 T00451024  RH  061%=      5-min Rain = 0
KDO1 142144Z 19011G16KT 04/M02 A302 RMK A01 T00431024  RH  062%=      5-min Rain = 0
KDO1 142145Z 18016KT 04/M02 A302 RMK A01 T00441023  RH  062%=      5-min Rain = 0
KDO1 142146Z 18014KT 04/M02 A302 RMK A01 T00441024  RH  061%=      5-min Rain = 0
KDO1 142147Z 19013KT 04/M02 A302 RMK A01 T00431024  RH  062%=      5-min Rain = 0
KDO1 142148Z 18010G15KT 04/M02 A302 RMK A01 T00431022  RH  063%=      5-min Rain = 0
KDO1 142149Z 19012KT 05/M02 A302 RMK A01 T00451022  RH  062%=      5-min Rain = 0
KDO1 142150Z 21011KT 05/M02 A302 RMK A01 T00451023  RH  061%=      5-min Rain = 0
KDO1 142151Z 20010G15KT 05/M02 A302 RMK A01 T00451023  RH  062%=      5-min Rain = 0
KDO1 142152Z 20008KT 05/M02 A302 RMK A01 T00451021  RH  062%=      5-min Rain = 0
KDO1 142153Z 18012KT 05/M02 A3019 RMK A01 T00471022  RH  061%=      5-min Rain = 0
KDO1 142154Z 18013G18KT 05/M02 A3019 RMK A01 T00471020  RH  061%=      5-min Rain = 0
KDO1 142155Z 18016KT 05/M02 A3019 RMK A01 T00481023  RH  060%=      5-min Rain = 0
KDO1 142156Z 19013KT 05/M02 A3019 RMK A01 T00461024  RH  061%=      5-min Rain = 0
KDO1 142157Z 19013KT 05/M02 A3019 RMK A01 T00451023  RH  061%=      5-min Rain = 0
KDO1 142158Z 18014KT 05/M02 A3019 RMK A01 T00471021  RH  062%=      5-min Rain = 0
KDO1 142159Z 17014KT 05/M02 A3019 RMK A01 T00471023  RH  061%=      5-min Rain = 0
KDO1 142200Z 17014KT 05/M02 A3019 RMK A01 T00461023  RH  061%=      5-min Rain = 0
KDO1 142201Z 17013KT 05/M02 A3019 RMK A01 T00461024  RH  060%=      5-min Rain = 0
KDO1 142202Z 17013KT 05/M02 A3019 RMK A01 T00461024  RH  060%=      5-min Rain = 0
KDO1 142203Z 17015KT 05/M02 A3019 RMK A01 T00471023  RH  061%=      5-min Rain = 0
KDO1 142204Z 18013KT 05/M02 A3019 RMK A01 T00471023  RH  061%=      5-min Rain = 0
KDO1 142205Z 18011KT 05/M02 A3019 RMK A01 T00471022  RH  061%=      5-min Rain = 0
KDO1 142206Z 18016KT 05/M02 A3019 RMK A01 T00481021  RH  061%=      5-min Rain = 0
KDO1 142207Z 18014KT 05/M02 A3019 RMK A01 T00481022  RH  060%=      5-min Rain = 0
KDO1 142208Z 19014KT 05/M02 A3019 RMK A01 T00491022  RH  060%=      5-min Rain = 0
KDO1 142209Z 18013KT 05/M02 A3019 RMK A01 T00481022  RH  060%=      5-min Rain = 0
KDO1 142210Z 18014G20KT 05/M02 A3018 RMK A01 T00491020  RH  061%=      5-min Rain = 0
KDO1 142211Z 17015KT 05/M02 A3018 RMK A01 T00501022  RH  060%=      5-min Rain = 0
KDO1 142212Z 16013KT 05/M02 A3018 RMK A01 T00491023  RH  059%=      5-min Rain = 0
KDO1 142213Z 16012KT 05/M02 A3018 RMK A01 T00491023  RH  060%=      5-min Rain = 0
KDO1 142214Z 17011KT 05/M02 A3018 RMK A01 T00491023  RH  060%=      5-min Rain = 0
KDO1 142215Z 17012KT 05/M02 A3018 RMK A01 T00491022  RH  060%=      5-min Rain = 0
KDO1 142216Z 18012KT 05/M02 A3018 RMK A01 T00511020  RH  060%=      5-min Rain = 0
KDO1 142217Z 17013KT 05/M02 A3018 RMK A01 T00521020  RH  060%=      5-min Rain = 0
KDO1 142218Z 19012KT 05/M02 A3018 RMK A01 T00521021  RH  059%=      5-min Rain = 0
KDO1 142219Z 19011KT 05/M02 A3018 RMK A01 T00521020  RH  060%=      5-min Rain = 0
KDO1 142220Z 16014KT 05/M02 A3018 RMK A01 T00541018  RH  060%=      5-min Rain = 0
KDO1 142221Z 17011KT 05/M02 A3018 RMK A01 T00541018  RH  059%=      5-min Rain = 0
KDO1 142222Z 17011KT 06/M02 A3018 RMK A01 T00561018  RH  059%=      5-min Rain = 0
KDO1 142223Z 17013KT 06/M02 A3018 RMK A01 T00561017  RH  059%=      5-min Rain = 0
KDO1 142224Z 17012KT 06/M02 A3018 RMK A01 T00571019  RH  058%=      5-min Rain = 0
KDO1 142225Z 17011KT 06/M02 A3018 RMK A01 T00551019  RH  059%=      5-min Rain = 0
KDO1 142226Z 17013KT 06/M02 A3018 RMK A01 T00561018  RH  059%=      5-min Rain = 0
KDO1 142227Z 18014KT 06/M02 A3017 RMK A01 T00571019  RH  058%=      5-min Rain = 0
KDO1 142228Z 17012KT 06/M02 A3017 RMK A01 T00551020  RH  058%=      5-min Rain = 0
KDO1 142229Z 16013G18KT 05/M02 A3017 RMK A01 T00541019  RH  059%=      5-min Rain = 0
KDO1 142230Z 16013KT 06/M02 A3017 RMK A01 T00551019  RH  059%=      5-min Rain = 0
KDO1 142231Z 16015KT 06/M02 A3017 RMK A01 T00551020  RH  059%=      5-min Rain = 0
KDO1 142232Z 17016KT 05/M02 A3017 RMK A01 T00541020  RH  059%=      5-min Rain = 0
KDO1 142233Z 17013KT 05/M02 A3017 RMK A01 T00531019  RH  060%=      5-min Rain = 0
KDO1 142234Z 17015KT 05/M02 A3017 RMK A01 T00541019  RH  059%=      5-min Rain = 0
KDO1 142235Z 17015KT 05/M02 A3017 RMK A01 T00541019  RH  059%=      5-min Rain = 0
KDO1 142236Z 16013G18KT 05/M02 A3017 RMK A01 T00541018  RH  060%=      5-min Rain = 0
KDO1 142237Z 16014G19KT 06/M02 A3017 RMK A01 T00551017  RH  060%=      5-min Rain = 0
KDO1 142238Z 17016KT 06/M02 A3017 RMK A01 T00551019  RH  059%=      5-min Rain = 0
KDO1 142239Z 17015KT 05/M02 A3017 RMK A01 T00541019  RH  059%=      5-min Rain = 0
KDO1 142240Z 16012KT 05/M02 A3017 RMK A01 T00541019  RH  059%=      5-min Rain = 0
KDO1 142241Z 16012KT 05/M02 A3017 RMK A01 T00541018  RH  060%=      5-min Rain = 0
KDO1 142242Z 16013KT 06/M02 A3017 RMK A01 T00551018  RH  060%=      5-min Rain = 0
KDO1 142243Z 16012KT 06/M02 A3016 RMK A01 T00551018  RH  059%=      5-min Rain = 0
KDO1 142244Z 17015KT 06/M02 A3016 RMK A01 T00561017  RH  060%=      5-min Rain = 0
KDO1 142245Z 18016KT 06/M02 A3016 RMK A01 T00561017  RH  059%=      5-min Rain = 0
KDO1 142246Z 18013KT 06/M02 A3016 RMK A01 T00561017  RH  059%=      5-min Rain = 0
KDO1 142247Z 18014KT 06/M02 A3016 RMK A01 T00561017  RH  060%=      5-min Rain = 0
KDO1 142248Z 18012KT 06/M02 A3016 RMK A01 T00561016  RH  060%=      5-min Rain = 0
KDO1 142249Z 17011KT 06/M01 A3016 RMK A01 T00571014  RH  060%=      5-min Rain = 0
KDO1 142250Z 16010KT 06/M01 A3016 RMK A01 T00581013  RH  060%=      5-min Rain = 0
KDO1 142251Z 17011KT 06/M02 A3016 RMK A01 T00591015  RH  059%=      5-min Rain = 0
KDO1 142252Z 16012KT 06/M02 A3016 RMK A01 T00581016  RH  059%=      5-min Rain = 0
KDO1 142253Z 17014KT 06/M01 A3016 RMK A01 T00581014  RH  060%=      5-min Rain = 0
KDO1 142254Z 17015KT 06/M01 A3016 RMK A01 T00591014  RH  059%=      5-min Rain = 0
KDO1 142255Z 18013KT 06/M01 A3016 RMK A01 T00591014  RH  059%=      5-min Rain = 0
KDO1 142256Z 17012KT 06/M01 A3016 RMK A01 T00601012  RH  060%=      5-min Rain = 0
KDO1 142257Z 17017KT 06/M01 A3016 RMK A01 T00601014  RH  059%=      5-min Rain = 0
KDO1 142258Z 17014KT 06/M02 A3016 RMK A01 T00601015  RH  059%=      5-min Rain = 0
KDO1 142259Z 17017KT 06/M01 A3016 RMK A01 T00601014  RH  059%=      5-min Rain = 0
KDO1 142300Z 17016KT 06/M02 A3016 RMK A01 T00601015  RH  059%=      5-min Rain = 0
KDO1 142301Z 17015KT 06/M02 A3016 RMK A01 T00591015  RH  059%=      5-min Rain = 0
KDO1 142302Z 17015KT 06/M02 A3016 RMK A01 T00591015  RH  059%=      5-min Rain = 0
KDO1 142303Z 18014KT 06/M01 A3016 RMK A01 T00591014  RH  059%=      5-min Rain = 0
KDO1 142304Z 18016KT 06/M01 A3016 RMK A01 T00591014  RH  059%=      5-min Rain = 0
KDO1 142305Z 18014KT 06/M01 A3016 RMK A01 T00591014  RH  060%=      5-min Rain = 0
KDO1 142306Z 18015KT 06/M01 A3016 RMK A01 T00591013  RH  060%=      5-min Rain = 0
KDO1 142307Z 17014KT 06/M01 A3016 RMK A01 T00601012  RH  060%=      5-min Rain = 0
KDO1 142308Z 17010KT 06/M01 A3016 RMK A01 T00601012  RH  060%=      5-min Rain = 0
KDO1 142309Z 17014KT 06/M01 A3016 RMK A01 T00611012  RH  060%=      5-min Rain = 0
KDO1 142310Z 18014KT 06/M01 A3016 RMK A01 T00611013  RH  059%=      5-min Rain = 0
KDO1 142311Z 17012KT 06/M01 A3016 RMK A01 T00601011  RH  060%=      5-min Rain = 0
KDO1 142312Z 17017KT 06/M01 A3016 RMK A01 T00601012  RH  060%=      5-min Rain = 0
KDO1 142313Z 17017KT 06/M01 A3015 RMK A01 T00601014  RH  059%=      5-min Rain = 0
KDO1 142314Z 17016KT 06/M02 A3016 RMK A01 T00591015  RH  059%=      5-min Rain = 0
KDO1 142315Z 16015KT 06/M02 A3015 RMK A01 T00581015  RH  059%=      5-min Rain = 0
KDO1 142316Z 16015KT 06/M01 A3016 RMK A01 T00581014  RH  060%=      5-min Rain = 0
KDO1 142317Z 17015KT 06/M01 A3016 RMK A01 T00581014  RH  060%=      5-min Rain = 0
KDO1 142318Z 17015KT 06/M01 A3015 RMK A01 T00581014  RH  060%=      5-min Rain = 0
KDO1 142319Z 17016KT 06/M01 A3015 RMK A01 T00581013  RH  060%=      5-min Rain = 0
KDO1 142320Z 16015KT 06/M01 A3015 RMK A01 T00581014  RH  060%=      5-min Rain = 0
KDO1 142321Z 17014KT 06/M01 A3015 RMK A01 T00581013  RH  060%=      5-min Rain = 0
KDO1 142322Z 16014KT 06/M01 A3015 RMK A01 T00581013  RH  061%=      5-min Rain = 0
KDO1 142323Z 16014KT 06/M01 A3015 RMK A01 T00581013  RH  060%=      5-min Rain = 0
KDO1 142324Z 17016KT 06/M01 A3015 RMK A01 T00581013  RH  060%=      5-min Rain = 0
KDO1 142325Z 18016KT 06/M01 A3015 RMK A01 T00571014  RH  060%=      5-min Rain = 0
KDO1 142326Z 17017KT 06/M01 A3015 RMK A01 T00571014  RH  060%=      5-min Rain = 0
KDO1 142327Z 17017KT 06/M02 A3015 RMK A01 T00561015  RH  060%=      5-min Rain = 0
KDO1 142328Z 17014KT 06/M01 A3015 RMK A01 T00571014  RH  060%=      5-min Rain = 0
KDO1 142329Z 17013KT 06/M01 A3015 RMK A01 T00561014  RH  060%=      5-min Rain = 0
KDO1 142330Z 17011KT 06/M01 A3015 RMK A01 T00571014  RH  061%=      5-min Rain = 0
KDO1 142331Z 16014G20KT 06/M01 A3015 RMK A01 T00571013  RH  061%=      5-min Rain = 0
KDO1 142332Z 17013KT 06/M01 A3015 RMK A01 T00571014  RH  060%=      5-min Rain = 0
KDO1 142333Z 17013G18KT 06/M01 A3015 RMK A01 T00561013  RH  061%=      5-min Rain = 0
KDO1 142334Z 17016KT 06/M01 A3015 RMK A01 T00561013  RH  061%=      5-min Rain = 0
KDO1 142335Z 18016G21KT 06/M01 A3015 RMK A01 T00561013  RH  061%=      5-min Rain = 0
KDO1 142336Z 18015KT 06/M01 A3015 RMK A01 T00571013  RH  061%=      5-min Rain = 0
KDO1 142337Z 17014KT 06/M01 A3015 RMK A01 T00561014  RH  061%=      5-min Rain = 0
KDO1 142338Z 18013G18KT 06/M01 A3015 RMK A01 T00561013  RH  061%=      5-min Rain = 0
KDO1 142339Z 17013G18KT 06/M01 A3015 RMK A01 T00561013  RH  061%=      5-min Rain = 0
KDO1 142340Z 18013KT 06/M01 A3015 RMK A01 T00561013  RH  061%=      5-min Rain = 0
KDO1 142341Z 18015KT 06/M01 A3015 RMK A01 T00561014  RH  061%=      5-min Rain = 0
KDO1 142342Z 17017KT 06/M01 A3015 RMK A01 T00551014  RH  061%=      5-min Rain = 0
KDO1 142343Z 17016G21KT 06/M01 A3015 RMK A01 T00551014  RH  061%=      5-min Rain = 0
KDO1 142344Z 17016KT 06/M01 A3015 RMK A01 T00551014  RH  061%=      5-min Rain = 0
KDO1 142345Z 17015KT 06/M01 A3015 RMK A01 T00551014  RH  061%=      5-min Rain = 0
KDO1 142346Z 17016G21KT 05/M01 A3015 RMK A01 T00541014  RH  061%=      5-min Rain = 0
KDO1 142347Z 18015KT 05/M01 A3015 RMK A01 T00541014  RH  062%=      5-min Rain = 0
KDO1 142348Z 17012KT 05/M01 A3015 RMK A01 T00541014  RH  062%=      5-min Rain = 0
KDO1 142349Z 17014KT 05/M01 A3015 RMK A01 T00531014  RH  062%=      5-min Rain = 0
KDO1 142350Z 17013G18KT 05/M01 A3015 RMK A01 T00531013  RH  062%=      5-min Rain = 0
KDO1 142351Z 17017KT 05/M01 A3015 RMK A01 T00531014  RH  062%=      5-min Rain = 0
KDO1 142352Z 17014G19KT 05/M02 A3015 RMK A01 T00531015  RH  062%=      5-min Rain = 0
KDO1 142353Z 17016KT 05/M01 A3015 RMK A01 T00531014  RH  062%=      5-min Rain = 0
KDO1 142354Z 17015KT 05/M01 A3015 RMK A01 T00531014  RH  062%=      5-min Rain = 0
KDO1 142355Z 17016G22KT 05/M01 A3015 RMK A01 T00521014  RH  062%=      5-min Rain = 0
KDO1 142356Z 17016G21KT 05/M01 A3015 RMK A01 T00521014  RH  062%=      5-min Rain = 0
KDO1 142357Z 17014KT 05/M01 A3015 RMK A01 T00521014  RH  062%=      5-min Rain = 0
KDO1 142358Z 17013KT 05/M01 A3015 RMK A01 T00521014  RH  063%=      5-min Rain = 0
KDO1 142359Z 17014KT 05/M01 A3015 RMK A01 T00511013  RH  063%=      5-min Rain = 0
KDO1 150000Z 17013KT 05/M01 A3015 RMK A01 T00511013  RH  063%=      5-min Rain = 0
KDO1 150001Z 17016KT 05/M01 A3015 RMK A01 T00501013  RH  064%=      5-min Rain = 0
KDO1 150002Z 17014KT 05/M01 A3015 RMK A01 T00501013  RH  064%=      5-min Rain = 0
KDO1 150003Z 17015KT 05/M01 A3015 RMK A01 T00491013  RH  064%=      5-min Rain = 0
KDO1 150004Z 17015KT 05/M01 A3015 RMK A01 T00491013  RH  064%=      5-min Rain = 0
KDO1 150005Z 18016KT 05/M01 A3015 RMK A01 T00491013  RH  064%=      5-min Rain = 0
KDO1 150006Z 17014G19KT 05/M01 A3015 RMK A01 T00481013  RH  065%=      5-min Rain = 0
KDO1 150007Z 17014KT 05/M01 A3015 RMK A01 T00481013  RH  065%=      5-min Rain = 0
KDO1 150008Z 17012KT 05/M01 A3015 RMK A01 T00471012  RH  065%=      5-min Rain = 0
KDO1 150009Z 17015KT 05/M01 A3015 RMK A01 T00471012  RH  066%=      5-min Rain = 0
KDO1 150010Z 18014G19KT 05/M01 A3015 RMK A01 T00471012  RH  066%=      5-min Rain = 0
KDO1 150011Z 17012KT 05/M01 A3015 RMK A01 T00461012  RH  066%=      5-min Rain = 0
KDO1 150012Z 17011KT 05/M01 A3015 RMK A01 T00451013  RH  066%=      5-min Rain = 0
KDO1 150013Z 17012KT 05/M01 A3015 RMK A01 T00451012  RH  066%=      5-min Rain = 0
KDO1 150014Z 17012KT 05/M01 A3015 RMK A01 T00451012  RH  066%=      5-min Rain = 0
KDO1 150015Z 17012KT 05/M01 A3015 RMK A01 T00451012  RH  066%=      5-min Rain = 0
KDO1 150016Z 17012KT 05/M01 A3015 RMK A01 T00451012  RH  066%=      5-min Rain = 0
KDO1 150017Z 17013KT 05/M01 A3015 RMK A01 T00451012  RH  066%=      5-min Rain = 0
KDO1 150018Z 17012KT 05/M01 A3015 RMK A01 T00451012  RH  066%=      5-min Rain = 0
KDO1 150019Z 17012KT 04/M01 A3015 RMK A01 T00441012  RH  067%=      5-min Rain = 0
KDO1 150020Z 17011KT 04/M01 A3015 RMK A01 T00441012  RH  067%=      5-min Rain = 0
KDO1 150021Z 17012KT 04/M01 A3015 RMK A01 T00431012  RH  068%=      5-min Rain = 0
KDO1 150022Z 17011KT 04/M01 A3015 RMK A01 T00421012  RH  068%=      5-min Rain = 0
KDO1 150023Z 17012KT 04/M01 A3015 RMK A01 T00421012  RH  068%=      5-min Rain = 0
KDO1 150024Z 17012KT 04/M01 A3015 RMK A01 T00421012  RH  068%=      5-min Rain = 0
KDO1 150025Z 17012KT 04/M01 A3015 RMK A01 T00421012  RH  068%=      5-min Rain = 0
KDO1 150026Z 17012KT 04/M01 A3015 RMK A01 T00421012  RH  068%=      5-min Rain = 0
KDO1 150027Z 17013KT 04/M01 A3015 RMK A01 T00421011  RH  068%=      5-min Rain = 0
KDO1 150028Z 17012KT 04/M01 A3015 RMK A01 T00421012  RH  068%=      5-min Rain = 0
KDO1 150029Z 17012KT 04/M01 A3015 RMK A01 T00421011  RH  068%=      5-min Rain = 0
KDO1 150030Z 17012KT 04/M01 A3015 RMK A01 T00411011  RH  069%=      5-min Rain = 0
KDO1 150031Z 17012KT 04/M01 A3015 RMK A01 T00411011  RH  069%=      5-min Rain = 0
KDO1 150032Z 18012KT 04/M01 A3015 RMK A01 T00411011  RH  069%=      5-min Rain = 0
KDO1 150033Z 17012KT 04/M01 A3015 RMK A01 T00401011  RH  069%=      5-min Rain = 0
KDO1 150034Z 18013KT 04/M01 A3015 RMK A01 T00401011  RH  069%=      5-min Rain = 0
KDO1 150035Z 18012KT 04/M01 A3015 RMK A01 T00401011  RH  070%=      5-min Rain = 0
KDO1 150036Z 18011KT 04/M01 A3015 RMK A01 T00391011  RH  070%=      5-min Rain = 0
KDO1 150037Z 19012KT 04/M01 A3015 RMK A01 T00381011  RH  070%=      5-min Rain = 0
KDO1 150038Z 19012KT 04/M01 A3015 RMK A01 T00371011  RH  071%=      5-min Rain = 0
KDO1 150039Z 20012KT 04/M01 A3015 RMK A01 T00351011  RH  072%=      5-min Rain = 0
KDO1 150040Z 19012KT 03/M01 A3015 RMK A01 T00341011  RH  073%=      5-min Rain = 0
KDO1 150041Z 19011KT 03/M01 A3015 RMK A01 T00331011  RH  073%=      5-min Rain = 0
KDO1 150042Z 19011KT 03/M01 A3015 RMK A01 T00321011  RH  073%=      5-min Rain = 0
KDO1 150043Z 19011KT 03/M01 A3015 RMK A01 T00321011  RH  073%=      5-min Rain = 0
KDO1 150044Z 19011KT 03/M01 A3015 RMK A01 T00321011  RH  073%=      5-min Rain = 0
KDO1 150045Z 19011KT 03/M01 A3015 RMK A01 T00321011  RH  073%=      5-min Rain = 0
KDO1 150046Z 19011KT 03/M01 A3015 RMK A01 T00321011  RH  074%=      5-min Rain = 0
KDO1 150047Z 19011KT 03/M01 A3015 RMK A01 T00321011  RH  074%=      5-min Rain = 0
KDO1 150048Z 19010KT 03/M01 A3015 RMK A01 T00311011  RH  074%=      5-min Rain = 0
KDO1 150049Z 19011KT 03/M01 A3015 RMK A01 T00311011  RH  074%=      5-min Rain = 0
KDO1 150050Z 19012KT 03/M01 A3015 RMK A01 T00311010  RH  074%=      5-min Rain = 0
KDO1 150051Z 19011KT 03/M01 A3015 RMK A01 T00311010  RH  074%=      5-min Rain = 0
KDO1 150052Z 19012KT 03/M01 A3015 RMK A01 T00311010  RH  074%=      5-min Rain = 0
KDO1 150053Z 19012KT 03/M01 A3015 RMK A01 T00311010  RH  075%=      5-min Rain = 0
KDO1 150054Z 19011KT 03/M01 A3015 RMK A01 T00311010  RH  074%=      5-min Rain = 0
KDO1 150055Z 19011KT 03/M01 A3015 RMK A01 T00311009  RH  074%=      5-min Rain = 0
KDO1 150056Z 19011KT 03/M01 A3015 RMK A01 T00311010  RH  075%=      5-min Rain = 0
KDO1 150057Z 19011KT 03/M01 A3015 RMK A01 T00311010  RH  075%=      5-min Rain = 0
KDO1 150058Z 19009KT 03/M01 A3015 RMK A01 T00311009  RH  075%=      5-min Rain = 0
KDO1 150059Z 20010KT 03/M01 A3015 RMK A01 T00301009  RH  075%=      5-min Rain = 0
KDO1 150100Z 20010KT 03/M01 A3015 RMK A01 T00291010  RH  075%=      5-min Rain = 0
KDO1 150101Z 20009KT 03/M01 A3015 RMK A01 T00301009  RH  075%=      5-min Rain = 0
KDO1 150102Z 20010KT 03/M01 A3015 RMK A01 T00301009  RH  076%=      5-min Rain = 0
KDO1 150103Z 19009KT 03/M01 A3015 RMK A01 T00301009  RH  076%=      5-min Rain = 0
KDO1 150104Z 19011KT 03/M01 A3015 RMK A01 T00291010  RH  076%=      5-min Rain = 0
KDO1 150105Z 20010KT 03/M01 A3015 RMK A01 T00291009  RH  076%=      5-min Rain = 0
KDO1 150106Z 20010KT 03/M01 A3015 RMK A01 T00281009  RH  076%=      5-min Rain = 0
KDO1 150107Z 20011KT 03/M01 A3015 RMK A01 T00281009  RH  077%=      5-min Rain = 0
KDO1 150108Z 20011KT 03/M01 A3015 RMK A01 T00271009  RH  077%=      5-min Rain = 0
KDO1 150109Z 20011KT 03/M01 A3015 RMK A01 T00271009  RH  077%=      5-min Rain = 0
KDO1 150110Z 20011KT 03/M01 A3015 RMK A01 T00271009  RH  077%=      5-min Rain = 0
KDO1 150111Z 20011KT 03/M01 A3015 RMK A01 T00261009  RH  077%=      5-min Rain = 0
KDO1 150112Z 20010KT 03/M01 A3015 RMK A01 T00261010  RH  078%=      5-min Rain = 0
KDO1 150113Z 20011KT 03/M01 A3015 RMK A01 T00251010  RH  078%=      5-min Rain = 0
KDO1 150114Z 20010KT 03/M01 A3015 RMK A01 T00251009  RH  078%=      5-min Rain = 0
KDO1 150115Z 20011KT 03/M01 A3015 RMK A01 T00251010  RH  078%=      5-min Rain = 0
KDO1 150116Z 21011KT 02/M01 A3015 RMK A01 T00241010  RH  078%=      5-min Rain = 0
KDO1 150117Z 21011KT 02/M01 A3015 RMK A01 T00241010  RH  078%=      5-min Rain = 0
KDO1 150118Z 21011KT 02/M01 A3015 RMK A01 T00231010  RH  079%=      5-min Rain = 0
KDO1 150119Z 21012KT 02/M01 A3015 RMK A01 T00231010  RH  079%=      5-min Rain = 0
KDO1 150120Z 21012KT 02/M01 A3015 RMK A01 T00241010  RH  079%=      5-min Rain = 0
KDO1 150121Z 21011KT 02/M01 A3015 RMK A01 T00241010  RH  079%=      5-min Rain = 0
KDO1 150122Z 21012KT 02/M01 A3015 RMK A01 T00231010  RH  079%=      5-min Rain = 0
KDO1 150123Z 21011KT 02/M01 A3015 RMK A01 T00231010  RH  079%=      5-min Rain = 0
KDO1 150124Z 21011KT 02/M01 A3015 RMK A01 T00231010  RH  079%=      5-min Rain = 0
KDO1 150125Z 21012KT 02/M01 A3015 RMK A01 T00231010  RH  079%=      5-min Rain = 0
KDO1 150126Z 21013KT 02/M01 A3016 RMK A01 T00231010  RH  079%=      5-min Rain = 0
KDO1 150127Z 21013KT 02/M01 A3016 RMK A01 T00231010  RH  079%=      5-min Rain = 0
KDO1 150128Z 21013KT 02/M01 A3016 RMK A01 T00231010  RH  079%=      5-min Rain = 0
KDO1 150129Z 21012KT 02/M01 A3016 RMK A01 T00231010  RH  079%=      5-min Rain = 0
KDO1 150130Z 21014KT 02/M01 A3016 RMK A01 T00221010  RH  079%=      5-min Rain = 0
KDO1 150131Z 21013KT 02/M01 A3016 RMK A01 T00221010  RH  079%=      5-min Rain = 0
KDO1 150132Z 21012KT 02/M01 A3016 RMK A01 T00221010  RH  079%=      5-min Rain = 0
KDO1 150133Z 21012KT 02/M01 A3016 RMK A01 T00221010  RH  079%=      5-min Rain = 0
KDO1 150134Z 21012KT 02/M01 A3016 RMK A01 T00221010  RH  080%=      5-min Rain = 0
KDO1 150135Z 21013KT 02/M01 A3016 RMK A01 T00211010  RH  080%=      5-min Rain = 0
KDO1 150136Z 21011KT 02/M01 A3016 RMK A01 T00211010  RH  080%=      5-min Rain = 0
KDO1 150137Z 21012KT 02/M01 A3016 RMK A01 T00211010  RH  080%=      5-min Rain = 0
KDO1 150138Z 21012KT 02/M01 A3016 RMK A01 T00211010  RH  080%=      5-min Rain = 0
KDO1 150139Z 21012KT 02/M01 A3016 RMK A01 T00211010  RH  080%=      5-min Rain = 0
KDO1 150140Z 21012KT 02/M01 A3016 RMK A01 T00201010  RH  080%=      5-min Rain = 0
KDO1 150141Z 21011KT 02/M01 A3016 RMK A01 T00211010  RH  080%=      5-min Rain = 0
KDO1 150142Z 21011KT 02/M01 A3016 RMK A01 T00211010  RH  080%=      5-min Rain = 0
KDO1 150143Z 21010KT 02/M01 A3016 RMK A01 T00201011  RH  080%=      5-min Rain = 0
KDO1 150144Z 21010KT 02/M01 A3016 RMK A01 T00201011  RH  080%=      5-min Rain = 0
KDO1 150145Z 21010KT 02/M01 A3016 RMK A01 T00191011  RH  080%=      5-min Rain = 0
KDO1 150146Z 21009KT 02/M01 A3016 RMK A01 T00181011  RH  081%=      5-min Rain = 0
KDO1 150147Z 22010KT 02/M01 A3016 RMK A01 T00181012  RH  081%=      5-min Rain = 0
KDO1 150148Z 21010KT 02/M01 A3016 RMK A01 T00181011  RH  081%=      5-min Rain = 0
KDO1 150149Z 21010KT 02/M01 A3016 RMK A01 T00181011  RH  081%=      5-min Rain = 0
KDO1 150150Z 21009KT 02/M01 A3016 RMK A01 T00191011  RH  081%=      5-min Rain = 0
KDO1 150151Z 22010KT 02/M01 A3016 RMK A01 T00181011  RH  081%=      5-min Rain = 0
KDO1 150152Z 21010KT 02/M01 A3016 RMK A01 T00181011  RH  081%=      5-min Rain = 0
KDO1 150153Z 21009KT 02/M01 A3016 RMK A01 T00181012  RH  081%=      5-min Rain = 0
KDO1 150154Z 22010KT 02/M01 A3016 RMK A01 T00171012  RH  081%=      5-min Rain = 0
KDO1 150155Z 21009KT 02/M01 A3016 RMK A01 T00161012  RH  081%=      5-min Rain = 0
KDO1 150156Z 21009KT 02/M01 A3016 RMK A01 T00161012  RH  082%=      5-min Rain = 0
KDO1 150157Z 22009KT 02/M01 A3015 RMK A01 T00151012  RH  082%=      5-min Rain = 0
KDO1 150158Z 21009KT 02/M01 A3015 RMK A01 T00151012  RH  082%=      5-min Rain = 0
KDO1 150159Z 21009KT 02/M01 A3015 RMK A01 T00151012  RH  082%=      5-min Rain = 0
KDO1 150200Z 21009KT 01/M01 A3015 RMK A01 T00141012  RH  082%=      5-min Rain = 0
KDO1 150201Z 21009KT 01/M01 A3015 RMK A01 T00141012  RH  083%=      5-min Rain = 0
KDO1 150202Z 22009KT 01/M01 A3015 RMK A01 T00141012  RH  083%=      5-min Rain = 0
KDO1 150203Z 22009KT 01/M01 A3015 RMK A01 T00141012  RH  083%=      5-min Rain = 0
KDO1 150204Z 21009KT 01/M01 A3015 RMK A01 T00131013  RH  083%=      5-min Rain = 0
KDO1 150205Z 21010KT 01/M01 A3015 RMK A01 T00131012  RH  083%=      5-min Rain = 0
KDO1 150206Z 21009KT 01/M01 A3015 RMK A01 T00131012  RH  083%=      5-min Rain = 0
KDO1 150207Z 21009KT 01/M01 A3015 RMK A01 T00141012  RH  083%=      5-min Rain = 0
KDO1 150208Z 22009KT 01/M01 A3015 RMK A01 T00131012  RH  083%=      5-min Rain = 0
KDO1 150209Z 22009KT 01/M01 A3015 RMK A01 T00131012  RH  083%=      5-min Rain = 0
KDO1 150210Z 22008KT 01/M01 A3015 RMK A01 T00131012  RH  083%=      5-min Rain = 0
KDO1 150211Z 22009KT 01/M01 A3015 RMK A01 T00131012  RH  083%=      5-min Rain = 0
KDO1 150212Z 22009KT 01/M01 A3015 RMK A01 T00121012  RH  084%=      5-min Rain = 0
KDO1 150213Z 21009KT 01/M01 A3015 RMK A01 T00121012  RH  084%=      5-min Rain = 0
KDO1 150214Z 22009KT 01/M01 A3015 RMK A01 T00131012  RH  084%=      5-min Rain = 0
KDO1 150215Z 22009KT 01/M01 A3015 RMK A01 T00121012  RH  084%=      5-min Rain = 0
KDO1 150216Z 22008KT 01/M01 A3015 RMK A01 T00121012  RH  084%=      5-min Rain = 0
KDO1 150217Z 22009KT 01/M01 A3015 RMK A01 T00121012  RH  084%=      5-min Rain = 0
KDO1 150218Z 22008KT 01/M01 A3015 RMK A01 T00121012  RH  084%=      5-min Rain = 0
KDO1 150219Z 22009KT 01/M01 A3015 RMK A01 T00121012  RH  084%=      5-min Rain = 0
KDO1 150220Z 22008KT 01/M01 A3015 RMK A01 T00121012  RH  084%=      5-min Rain = 0
KDO1 150221Z 22009KT 01/M01 A3015 RMK A01 T00121012  RH  084%=      5-min Rain = 0
KDO1 150222Z 22009KT 01/M01 A3015 RMK A01 T00121012  RH  085%=      5-min Rain = 0
KDO1 150223Z 22009KT 01/M01 A3015 RMK A01 T00121011  RH  085%=      5-min Rain = 0
KDO1 150224Z 22009KT 01/M01 A3015 RMK A01 T00121011  RH  085%=      5-min Rain = 0
KDO1 150225Z 22009KT 01/M01 A3015 RMK A01 T00121011  RH  085%=      5-min Rain = 0
KDO1 150226Z 22009KT 01/M01 A3015 RMK A01 T00121011  RH  085%=      5-min Rain = 0
KDO1 150227Z 22009KT 01/M01 A3015 RMK A01 T00121011  RH  085%=      5-min Rain = 0
KDO1 150228Z 22009KT 01/M01 A3015 RMK A01 T00121011  RH  085%=      5-min Rain = 0
KDO1 150229Z 22009KT 01/M01 A3015 RMK A01 T00121011  RH  085%=      5-min Rain = 0
KDO1 150230Z 23009KT 01/M01 A3015 RMK A01 T00111011  RH  085%=      5-min Rain = 0
KDO1 150231Z 22009KT 01/M01 A3015 RMK A01 T00111011  RH  085%=      5-min Rain = 0
KDO1 150232Z 22009KT 01/M01 A3016 RMK A01 T00111011  RH  085%=      5-min Rain = 0
KDO1 150233Z 22010KT 01/M01 A3016 RMK A01 T00111011  RH  085%=      5-min Rain = 0
KDO1 150234Z 22009KT 01/M01 A3016 RMK A01 T00101011  RH  085%=      5-min Rain = 0
KDO1 150235Z 22010KT 01/M01 A3016 RMK A01 T00101011  RH  086%=      5-min Rain = 0
KDO1 150236Z 22010KT 01/M01 A3016 RMK A01 T00101011  RH  086%=      5-min Rain = 0
KDO1 150237Z 22010KT 01/M01 A3016 RMK A01 T00101011  RH  086%=      5-min Rain = 0
KDO1 150238Z 22010KT 01/M01 A3015 RMK A01 T00101011  RH  086%=      5-min Rain = 0
KDO1 150239Z 22010KT 01/M01 A3015 RMK A01 T00101011  RH  086%=      5-min Rain = 0
KDO1 150240Z 23010KT 01/M01 A3015 RMK A01 T00101011  RH  086%=      5-min Rain = 0
KDO1 150241Z 22010KT 01/M01 A3015 RMK A01 T00101011  RH  086%=      5-min Rain = 0
KDO1 150242Z 22010KT 01/M01 A3015 RMK A01 T00101011  RH  086%=      5-min Rain = 0
KDO1 150243Z 22010KT 01/M01 A3016 RMK A01 T00101011  RH  086%=      5-min Rain = 0
KDO1 150244Z 22010KT 01/M01 A3016 RMK A01 T00101011  RH  086%=      5-min Rain = 0
KDO1 150245Z 22009KT 01/M01 A3016 RMK A01 T00101011  RH  086%=      5-min Rain = 0
KDO1 150246Z 23009KT 01/M01 A3016 RMK A01 T00101011  RH  086%=      5-min Rain = 0
KDO1 150247Z 23009KT 01/M01 A3016 RMK A01 T00101010  RH  086%=      5-min Rain = 0
KDO1 150248Z 23009KT 01/M01 A3016 RMK A01 T00101010  RH  087%=      5-min Rain = 0
KDO1 150249Z 23009KT 01/M01 A3016 RMK A01 T00101010  RH  087%=      5-min Rain = 0
KDO1 150250Z 23009KT 01/M01 A3016 RMK A01 T00101010  RH  086%=      5-min Rain = 0
KDO1 150251Z 23009KT 01/M01 A3016 RMK A01 T00101010  RH  087%=      5-min Rain = 0
KDO1 150252Z 23009KT 01/M01 A3016 RMK A01 T00101010  RH  087%=      5-min Rain = 0
KDO1 150253Z 23009KT 01/M01 A3016 RMK A01 T00091010  RH  087%=      5-min Rain = 0
KDO1 150254Z 22010KT 01/M01 A3016 RMK A01 T00091010  RH  087%=      5-min Rain = 0
KDO1 150255Z 23009KT 01/M01 A3016 RMK A01 T00101010  RH  087%=      5-min Rain = 0
KDO1 150256Z 23009KT 01/M01 A3016 RMK A01 T00101010  RH  087%=      5-min Rain = 0
KDO1 150257Z 23009KT 01/M01 A3016 RMK A01 T00101010  RH  087%=      5-min Rain = 0
KDO1 150258Z 23009KT 01/M01 A3015 RMK A01 T00101010  RH  087%=      5-min Rain = 0
KDO1 150259Z 23009KT 01/M01 A3016 RMK A01 T00101010  RH  087%=      5-min Rain = 0
KDO1 150300Z 23009KT 01/M01 A3016 RMK A01 T00091010  RH  087%=      5-min Rain = 0
KDO1 150301Z 23009KT 01/M01 A3016 RMK A01 T00091010  RH  087%=      5-min Rain = 0
KDO1 150302Z 23009KT 01/M01 A3015 RMK A01 T00091010  RH  087%=      5-min Rain = 0
KDO1 150303Z 23008KT 01/M01 A3015 RMK A01 T00091010  RH  087%=      5-min Rain = 0
KDO1 150304Z 23008KT 01/M01 A3015 RMK A01 T00091011  RH  087%=      5-min Rain = 0
KDO1 150305Z 24008KT 01/M01 A3015 RMK A01 T00081012  RH  087%=      5-min Rain = 0
KDO1 150306Z 24008KT 01/M01 A3015 RMK A01 T00071012  RH  087%=      5-min Rain = 0
KDO1 150307Z 24008KT 01/M01 A3015 RMK A01 T00061012  RH  088%=      5-min Rain = 0
KDO1 150308Z 24009KT 01/M01 A3015 RMK A01 T00061012  RH  088%=      5-min Rain = 0
KDO1 150309Z 24009KT 01/M01 A3015 RMK A01 T00051012  RH  088%=      5-min Rain = 0
KDO1 150310Z 24008KT 01/M01 A3015 RMK A01 T00051012  RH  088%=      5-min Rain = 0
KDO1 150311Z 24009KT 00/M01 A3015 RMK A01 T00041013  RH  089%=      5-min Rain = 0
KDO1 150312Z 24008KT 00/M01 A3015 RMK A01 T00041012  RH  089%=      5-min Rain = 0
KDO1 150313Z 24008KT 00/M01 A3015 RMK A01 T00031013  RH  089%=      5-min Rain = 0
KDO1 150314Z 24008KT 00/M01 A3015 RMK A01 T00031013  RH  089%=      5-min Rain = 0
KDO1 150315Z 24008KT 00/M01 A3015 RMK A01 T00031013  RH  089%=      5-min Rain = 0
KDO1 150316Z 24008KT 00/M01 A3015 RMK A01 T00021013  RH  089%=      5-min Rain = 0
KDO1 150317Z 24008KT 00/M01 A3015 RMK A01 T00011014  RH  090%=      5-min Rain = 0
KDO1 150318Z 24008KT 00/M01 A3015 RMK A01 T00011014  RH  090%=      5-min Rain = 0
KDO1 150319Z 24008KT 00/M01 A3015 RMK A01 T00011014  RH  090%=      5-min Rain = 0
KDO1 150320Z 24008KT 00/02 A3015 RMK A01 T00-00-15  RH  090%=      5-min Rain = 0
KDO1 150321Z 24008KT 00/02 A3015 RMK A01 T00-00-15  RH  090%=      5-min Rain = 0
KDO1 150322Z 24008KT M00/M02 A3015 RMK A01 T10011015  RH  090%=      5-min Rain = 0
KDO1 150323Z 24008KT M00/M02 A3015 RMK A01 T10021015  RH  091%=      5-min Rain = 0
KDO1 150324Z 24007KT M00/M02 A3015 RMK A01 T10021015  RH  091%=      5-min Rain = 0
KDO1 150325Z 24007KT M00/M02 A3015 RMK A01 T10021015  RH  091%=      5-min Rain = 0
KDO1 150326Z 24007KT M00/M02 A3015 RMK A01 T10021015  RH  091%=      5-min Rain = 0
KDO1 150327Z 24007KT M00/M02 A3015 RMK A01 T10031016  RH  091%=      5-min Rain = 0
KDO1 150328Z 24007KT M00/M02 A3015 RMK A01 T10031016  RH  091%=      5-min Rain = 0
KDO1 150329Z 25007KT M00/M02 A3015 RMK A01 T10031016  RH  091%=      5-min Rain = 0
KDO1 150330Z 25006KT M00/M02 A3015 RMK A01 T10041016  RH  091%=      5-min Rain = 0
KDO1 150331Z 24007KT M00/M02 A3015 RMK A01 T10041016  RH  092%=      5-min Rain = 0
KDO1 150332Z 25007KT M01/M02 A3015 RMK A01 T10051016  RH  092%=      5-min Rain = 0
KDO1 150333Z 25006KT M00/M02 A3015 RMK A01 T10041016  RH  092%=      5-min Rain = 0
KDO1 150334Z 25006KT M01/M02 A3015 RMK A01 T10051017  RH  092%=      5-min Rain = 0
KDO1 150335Z 25006KT M01/M02 A3015 RMK A01 T10051017  RH  092%=      5-min Rain = 0
KDO1 150336Z 25006KT M01/M02 A3015 RMK A01 T10061017  RH  092%=      5-min Rain = 0
KDO1 150337Z 26007KT M01/M02 A3015 RMK A01 T10051016  RH  093%=      5-min Rain = 0
KDO1 150338Z 26007KT M01/M02 A3015 RMK A01 T10051015  RH  093%=      5-min Rain = 0
KDO1 150339Z 26008KT M00/M01 A3015 RMK A01 T10031013  RH  093%=      5-min Rain = 0
KDO1 150340Z 26008KT M00/M01 A3015 RMK A01 T10021012  RH  093%=      5-min Rain = 0
KDO1 150341Z 26008KT 00/01 A3015 RMK A01 T00-00-12  RH  092%=      5-min Rain = 0
KDO1 150342Z 26008KT 00/01 A3015 RMK A01 T00000-12  RH  092%=      5-min Rain = 0
KDO1 150343Z 26008KT 00/M01 A3015 RMK A01 T00021011  RH  091%=      5-min Rain = 0
KDO1 150344Z 26008KT 00/M01 A3015 RMK A01 T00031010  RH  091%=      5-min Rain = 0
KDO1 150345Z 26008KT 00/M01 A3015 RMK A01 T00031011  RH  090%=      5-min Rain = 0
KDO1 150346Z 26008KT 00/M01 A3015 RMK A01 T00031011  RH  090%=      5-min Rain = 0
KDO1 150347Z 26007KT 00/M01 A3015 RMK A01 T00031012  RH  090%=      5-min Rain = 0
KDO1 150348Z 26008KT 00/M01 A3015 RMK A01 T00041011  RH  090%=      5-min Rain = 0
KDO1 150349Z 25007KT 00/M01 A3015 RMK A01 T00041011  RH  090%=      5-min Rain = 0
KDO1 150350Z 25008KT 01/M01 A3015 RMK A01 T00051010  RH  090%=      5-min Rain = 0
KDO1 150351Z 25008KT 01/M01 A3015 RMK A01 T00061010  RH  089%=      5-min Rain = 0
KDO1 150352Z 25008KT 01/M01 A3015 RMK A01 T00061011  RH  089%=      5-min Rain = 0
KDO1 150353Z 25008KT 01/M01 A3015 RMK A01 T00061011  RH  089%=      5-min Rain = 0
KDO1 150354Z 25008KT 01/M01 A3015 RMK A01 T00061010  RH  089%=      5-min Rain = 0
KDO1 150355Z 25007KT 01/M01 A3015 RMK A01 T00061011  RH  089%=      5-min Rain = 0
KDO1 150356Z 25008KT 01/M01 A3015 RMK A01 T00061010  RH  089%=      5-min Rain = 0
KDO1 150357Z 24007KT 01/M01 A3015 RMK A01 T00061010  RH  089%=      5-min Rain = 0
KDO1 150358Z 24008KT 01/M01 A3015 RMK A01 T00061011  RH  089%=      5-min Rain = 0
KDO1 150359Z 24007KT 01/M01 A3015 RMK A01 T00061011  RH  089%=      5-min Rain = 0
KDO1 150400Z 24007KT 01/M01 A3015 RMK A01 T00051012  RH  089%=      5-min Rain = 0
KDO1 150401Z 23007KT 00/M01 A3015 RMK A01 T00041012  RH  089%=      5-min Rain = 0
KDO1 150402Z 23007KT 00/M01 A3015 RMK A01 T00041012  RH  089%=      5-min Rain = 0
KDO1 150403Z 23007KT 00/M01 A3015 RMK A01 T00041012  RH  089%=      5-min Rain = 0
KDO1 150404Z 23007KT 00/M01 A3015 RMK A01 T00031013  RH  089%=      5-min Rain = 0
KDO1 150405Z 23007KT 00/M01 A3015 RMK A01 T00021013  RH  090%=      5-min Rain = 0
KDO1 150406Z 23008KT 00/M01 A3015 RMK A01 T00021013  RH  090%=      5-min Rain = 0
KDO1 150407Z 23007KT 00/M01 A3015 RMK A01 T00021013  RH  090%=      5-min Rain = 0
KDO1 150408Z 23007KT 00/M01 A3015 RMK A01 T00011013  RH  090%=      5-min Rain = 0
KDO1 150409Z 23007KT 00/01 A3015 RMK A01 T00000-13  RH  091%=      5-min Rain = 0
KDO1 150410Z 23007KT 00/01 A3015 RMK A01 T00-00-14  RH  091%=      5-min Rain = 0
KDO1 150411Z 23007KT M00/M01 A3015 RMK A01 T10011014  RH  091%=      5-min Rain = 0
KDO1 150412Z 23006KT M00/M01 A3015 RMK A01 T10011014  RH  091%=      5-min Rain = 0
KDO1 150413Z 23006KT M00/M01 A3015 RMK A01 T10021014  RH  091%=      5-min Rain = 0
KDO1 150414Z 24006KT M00/M02 A3015 RMK A01 T10031015  RH  092%=      5-min Rain = 0
KDO1 150415Z 24006KT M00/M02 A3015 RMK A01 T10041015  RH  092%=      5-min Rain = 0
KDO1 150416Z 24006KT M00/M02 A3015 RMK A01 T10041015  RH  092%=      5-min Rain = 0
KDO1 150417Z 24005KT M01/M02 A3015 RMK A01 T10051015  RH  093%=      5-min Rain = 0
KDO1 150418Z 24005KT M01/M02 A3015 RMK A01 T10051015  RH  093%=      5-min Rain = 0
KDO1 150419Z 24006KT M01/M01 A3015 RMK A01 T10051014  RH  094%=      5-min Rain = 0
KDO1 150420Z 24006KT M00/M01 A3015 RMK A01 T10041014  RH  094%=      5-min Rain = 0
KDO1 150421Z 24006KT M00/M01 A3015 RMK A01 T10041013  RH  093%=      5-min Rain = 0
KDO1 150422Z 24005KT M00/M01 A3015 RMK A01 T10041014  RH  093%=      5-min Rain = 0
KDO1 150423Z 24005KT M00/M01 A3015 RMK A01 T10041014  RH  093%=      5-min Rain = 0
KDO1 150424Z 24005KT M01/M01 A3015 RMK A01 T10051014  RH  093%=      5-min Rain = 0
KDO1 150425Z 24005KT M00/M01 A3015 RMK A01 T10041014  RH  094%=      5-min Rain = 0
KDO1 150426Z 24005KT M00/M01 A3015 RMK A01 T10041014  RH  094%=      5-min Rain = 0
KDO1 150427Z 24005KT M00/M01 A3015 RMK A01 T10041014  RH  093%=      5-min Rain = 0
KDO1 150428Z 24005KT M00/M01 A3015 RMK A01 T10041013  RH  094%=      5-min Rain = 0
KDO1 150429Z 24006KT M00/M01 A3015 RMK A01 T10041013  RH  094%=      5-min Rain = 0
KDO1 150430Z 24006KT M00/M01 A3015 RMK A01 T10031012  RH  094%=      5-min Rain = 0
KDO1 150431Z 24006KT M00/M01 A3015 RMK A01 T10031013  RH  093%=      5-min Rain = 0
KDO1 150432Z 24006KT M00/M01 A3015 RMK A01 T10041013  RH  093%=      5-min Rain = 0
KDO1 150433Z 23007KT M00/M01 A3015 RMK A01 T10031013  RH  093%=      5-min Rain = 0
KDO1 150434Z 23007KT M00/M01 A3015 RMK A01 T10041014  RH  093%=      5-min Rain = 0
KDO1 150435Z 23007KT M01/M01 A3015 RMK A01 T10051014  RH  093%=      5-min Rain = 0
KDO1 150436Z 23007KT M01/M02 A3015 RMK A01 T10051015  RH  093%=      5-min Rain = 0
KDO1 150437Z 23007KT M01/M02 A3015 RMK A01 T10061015  RH  094%=      5-min Rain = 0
KDO1 150438Z 23006KT M01/M02 A3014 RMK A01 T10071016  RH  094%=      5-min Rain = 0
KDO1 150439Z 22007KT M01/M02 A3014 RMK A01 T10081016  RH  094%=      5-min Rain = 0
KDO1 150440Z 22007KT M01/M02 A3014 RMK A01 T10081017  RH  094%=      5-min Rain = 0
KDO1 150441Z 22007KT M01/M02 A3014 RMK A01 T10091016  RH  095%=      5-min Rain = 0
KDO1 150442Z 22007KT M01/M02 A3014 RMK A01 T10091015  RH  095%=      5-min Rain = 0
KDO1 150443Z 22007KT M01/M02 A3014 RMK A01 T10091015  RH  096%=      5-min Rain = 0
KDO1 150444Z 22008KT M01/M01 A3014 RMK A01 T10081014  RH  096%=      5-min Rain = 0
KDO1 150445Z 22008KT M01/M01 A3014 RMK A01 T10081013  RH  096%=      5-min Rain = 0
KDO1 150446Z 22008KT M01/M01 A3014 RMK A01 T10071013  RH  096%=      5-min Rain = 0
KDO1 150447Z 22008KT M01/M01 A3014 RMK A01 T10071014  RH  096%=      5-min Rain = 0
KDO1 150448Z 21008KT M01/M01 A3014 RMK A01 T10071014  RH  096%=      5-min Rain = 0
KDO1 150449Z 21007KT M01/M01 A3014 RMK A01 T10071014  RH  096%=      5-min Rain = 0
KDO1 150450Z 21007KT M01/M01 A3014 RMK A01 T10081014  RH  096%=      5-min Rain = 0
KDO1 150451Z 21007KT M01/M01 A3014 RMK A01 T10081014  RH  096%=      5-min Rain = 0
KDO1 150452Z 21007KT M01/M01 A3014 RMK A01 T10081014  RH  096%=      5-min Rain = 0
KDO1 150453Z 21007KT M01/M01 A3014 RMK A01 T10091014  RH  096%=      5-min Rain = 0
KDO1 150454Z 21007KT M01/M01 A3014 RMK A01 T10091014  RH  096%=      5-min Rain = 0
KDO1 150455Z 21007KT M01/M01 A3014 RMK A01 T10081014  RH  096%=      5-min Rain = 0
KDO1 150456Z 21007KT M01/M01 A3014 RMK A01 T10091014  RH  096%=      5-min Rain = 0
KDO1 150457Z 22007KT M01/M02 A3014 RMK A01 T10091015  RH  096%=      5-min Rain = 0
KDO1 150458Z 22007KT M01/M02 A3014 RMK A01 T10101016  RH  096%=      5-min Rain = 0
KDO1 150459Z 23006KT M01/M02 A3014 RMK A01 T10101016  RH  096%=      5-min Rain = 0
KDO1 150500Z 23006KT M01/M02 A3014 RMK A01 T10111018  RH  096%=      5-min Rain = 0
KDO1 150501Z 23006KT M01/M02 A3014 RMK A01 T10121018  RH  096%=      5-min Rain = 0
KDO1 150502Z 24005KT M01/M02 A3014 RMK A01 T10131019  RH  096%=      5-min Rain = 0
KDO1 150503Z 24005KT M01/M02 A3014 RMK A01 T10131018  RH  097%=      5-min Rain = 0
KDO1 150504Z 24006KT M01/M02 A3014 RMK A01 T10131017  RH  097%=      5-min Rain = 0
KDO1 150505Z 24005KT M01/M02 A3014 RMK A01 T10131016  RH  098%=      5-min Rain = 0
KDO1 150506Z 23006KT M01/M02 A3014 RMK A01 T10121015  RH  098%=      5-min Rain = 0
KDO1 150507Z 23006KT M01/M01 A3014 RMK A01 T10111014  RH  098%=      5-min Rain = 0
KDO1 150508Z 23006KT M01/M01 A3014 RMK A01 T10101013  RH  098%=      5-min Rain = 0
KDO1 150509Z 23006KT M01/M01 A3014 RMK A01 T10101013  RH  098%=      5-min Rain = 0
KDO1 150510Z 23005KT M01/M01 A3014 RMK A01 T10101013  RH  098%=      5-min Rain = 0
KDO1 150511Z 23005KT M01/M01 A3014 RMK A01 T10091013  RH  097%=      5-min Rain = 0
KDO1 150512Z 23005KT M01/M01 A3014 RMK A01 T10091013  RH  097%=      5-min Rain = 0
KDO1 150513Z 24005KT M01/M01 A3014 RMK A01 T10091013  RH  097%=      5-min Rain = 0
KDO1 150514Z 24005KT M01/M01 A3014 RMK A01 T10091014  RH  097%=      5-min Rain = 0
KDO1 150515Z 23005KT M01/M01 A3014 RMK A01 T10101014  RH  097%=      5-min Rain = 0
KDO1 150516Z 23005KT M01/M01 A3014 RMK A01 T10101013  RH  097%=      5-min Rain = 0
KDO1 150517Z 23005KT M01/M01 A3014 RMK A01 T10091013  RH  098%=      5-min Rain = 0
KDO1 150518Z 23006KT M01/M01 A3014 RMK A01 T10091013  RH  098%=      5-min Rain = 0
KDO1 150519Z 23006KT M01/M01 A3014 RMK A01 T10091012  RH  098%=      5-min Rain = 0
KDO1 150520Z 22006KT M01/M01 A3014 RMK A01 T10091012  RH  097%=      5-min Rain = 0
KDO1 150521Z 22006KT M01/M01 A3013 RMK A01 T10081012  RH  097%=      5-min Rain = 0
KDO1 150522Z 22006KT M01/M01 A3013 RMK A01 T10091013  RH  097%=      5-min Rain = 0
KDO1 150523Z 21006KT M01/M01 A3013 RMK A01 T10081013  RH  097%=      5-min Rain = 0
KDO1 150524Z 22006KT M01/M01 A3013 RMK A01 T10091014  RH  097%=      5-min Rain = 0
KDO1 150525Z 22006KT M01/M02 A3013 RMK A01 T10101015  RH  096%=      5-min Rain = 0
KDO1 150526Z 22006KT M01/M02 A3013 RMK A01 T10111016  RH  096%=      5-min Rain = 0
KDO1 150527Z 23006KT M01/M02 A3013 RMK A01 T10121017  RH  096%=      5-min Rain = 0
KDO1 150528Z 23006KT M01/M02 A3013 RMK A01 T10131018  RH  097%=      5-min Rain = 0
KDO1 150529Z 24006KT M01/M02 A3013 RMK A01 T10141018  RH  097%=      5-min Rain = 0
KDO1 150530Z 24006KT M01/M02 A3013 RMK A01 T10141016  RH  098%=      5-min Rain = 0
KDO1 150531Z 25006KT M01/M01 A3013 RMK A01 T10121013  RH  099%=      5-min Rain = 0
KDO1 150532Z 25006KT M01/M01 A3013 RMK A01 T10111011  RH  099%=      5-min Rain = 0
KDO1 150533Z 24006KT M01/M01 A3013 RMK A01 T10091010  RH  099%=      5-min Rain = 0
KDO1 150534Z 25006KT M01/M01 A3013 RMK A01 T10081010  RH  099%=      5-min Rain = 0
KDO1 150535Z 24006KT M01/M01 A3013 RMK A01 T10071009  RH  098%=      5-min Rain = 0
KDO1 150536Z 24006KT M01/M01 A3013 RMK A01 T10071010  RH  098%=      5-min Rain = 0
KDO1 150537Z 24007KT M01/M01 A3013 RMK A01 T10071010  RH  098%=      5-min Rain = 0
KDO1 150538Z 23007KT M01/M01 A3013 RMK A01 T10071010  RH  097%=      5-min Rain = 0
KDO1 150539Z 23007KT M01/M01 A3013 RMK A01 T10061010  RH  097%=      5-min Rain = 0
KDO1 150540Z 23007KT M01/M01 A3013 RMK A01 T10061010  RH  097%=      5-min Rain = 0
KDO1 150541Z 23007KT M01/M01 A3013 RMK A01 T10051009  RH  097%=      5-min Rain = 0
KDO1 150542Z 23007KT M01/M01 A3013 RMK A01 T10061010  RH  097%=      5-min Rain = 0
KDO1 150543Z 24007KT M01/M01 A3013 RMK A01 T10051010  RH  097%=      5-min Rain = 0
KDO1 150544Z 24007KT M01/M01 A3013 RMK A01 T10051010  RH  097%=      5-min Rain = 0
KDO1 150545Z 24007KT M01/M01 A3013 RMK A01 T10051010  RH  097%=      5-min Rain = 0
KDO1 150546Z 24007KT M01/M01 A3013 RMK A01 T10051009  RH  097%=      5-min Rain = 0
KDO1 150547Z 23006KT M00/M01 A3012 RMK A01 T10041009  RH  097%=      5-min Rain = 0
KDO1 150548Z 23007KT M00/M01 A3012 RMK A01 T10041009  RH  097%=      5-min Rain = 0
KDO1 150549Z 23006KT M00/M01 A3012 RMK A01 T10041010  RH  096%=      5-min Rain = 0
KDO1 150550Z 23006KT M01/M01 A3012 RMK A01 T10051010  RH  096%=      5-min Rain = 0
KDO1 150551Z 23006KT M01/M01 A3012 RMK A01 T10051011  RH  096%=      5-min Rain = 0
KDO1 150552Z 22006KT M01/M01 A3012 RMK A01 T10061012  RH  096%=      5-min Rain = 0
KDO1 150553Z 22006KT M01/M01 A3012 RMK A01 T10071013  RH  096%=      5-min Rain = 0
KDO1 150554Z 22006KT M01/M01 A3012 RMK A01 T10091014  RH  096%=      5-min Rain = 0
KDO1 150555Z 22006KT M01/M02 A3012 RMK A01 T10101016  RH  096%=      5-min Rain = 0
KDO1 150556Z 22006KT M01/M02 A3012 RMK A01 T10111016  RH  096%=      5-min Rain = 0
KDO1 150557Z 22006KT M01/M02 A3012 RMK A01 T10121017  RH  096%=      5-min Rain = 0
KDO1 150558Z 22006KT M01/M02 A3012 RMK A01 T10131018  RH  097%=      5-min Rain = 0
KDO1 150559Z 22006KT M01/M02 A3011 RMK A01 T10141018  RH  097%=      5-min Rain = 0

Page generated in 0.0722 seconds.